GFSMW_sfc_thetae_039.txt.gz
Theta_e
344 345 342 339 341 350 352 351 355 358 354 349 347 348 349 341 346 348 347 349 351 349 352 350 353 355 354 354 355 352 350 346 347 344 344 345 347 346 346 348 348 346 352
339 336 336 333 333 333 340 353 356 354 353 348 348 346 342 346 347 345 351 354 354 354 352 354 354 355 352 352 352 350 344 342 346 341 341 335 340 343 345 345 348 350 351
337 336 333 336 333 331 337 344 351 352 349 348 347 346 346 347 346 345 349 352 353 353 353 353 354 353 351 348 351 350 344 339 341 345 343 335 332 338 339 343 345 347 349
337 337 336 337 337 335 337 343 346 348 347 351 349 348 343 344 347 346 350 349 350 349 350 351 352 353 351 350 350 351 347 344 341 340 342 345 342 338 332 341 341 344 345
335 335 331 334 336 338 338 345 347 347 347 349 351 350 348 347 346 347 349 349 348 348 348 350 350 353 353 352 351 350 349 344 341 339 342 339 343 346 342 334 335 340 342
334 334 334 334 333 336 339 344 347 347 347 346 347 351 348 345 344 345 345 342 344 346 349 349 348 348 350 350 351 350 348 348 344 344 346 345 340 341 340 340 334 336 339
330 333 333 331 333 335 338 345 348 345 347 348 351 350 348 347 346 344 341 341 340 341 345 347 342 343 346 349 351 350 350 349 345 345 345 348 348 350 349 343 336 332 335
338 335 336 331 331 334 342 348 346 345 346 350 351 352 349 345 344 344 342 340 341 342 344 345 345 343 344 347 347 342 342 347 348 346 346 347 350 350 350 337 333 329 331
336 332 336 334 341 344 348 348 347 347 348 351 349 347 347 346 344 344 344 341 343 340 342 343 342 343 344 345 345 339 340 341 341 344 347 347 349 349 351 348 346 341 327
329 334 336 341 347 350 350 348 347 346 347 342 349 347 347 346 345 344 342 344 343 342 340 340 341 341 341 342 342 340 342 342 339 340 341 341 343 347 348 348 345 345 341
329 334 338 345 349 350 349 345 346 347 341 343 346 346 344 344 343 341 342 342 342 341 339 339 339 338 338 339 339 338 339 339 339 340 338 337 341 340 342 347 347 339 338
335 339 339 346 348 348 346 345 349 347 340 342 346 346 345 344 342 341 341 341 340 339 338 337 336 335 335 336 336 335 335 335 335 336 334 334 336 336 340 339 339 341 342
336 342 343 341 338 339 346 346 347 343 343 349 346 345 344 343 342 341 340 340 339 338 337 336 334 333 333 333 334 333 333 332 332 334 334 333 336 334 331 333 334 335 335
332 341 337 337 336 336 341 345 345 344 345 348 347 346 345 344 342 342 341 340 339 337 336 336 335 333 331 331 330 330 329 329 330 331 332 330 330 334 334 332 333 332 330
329 338 336 336 337 337 337 339 342 343 346 348 347 346 346 345 343 342 341 340 338 336 335 334 334 334 332 329 331 330 325 326 327 327 329 330 328 325 327 334 335 335 330
328 332 337 338 337 336 336 336 338 341 345 348 348 348 347 345 342 343 341 340 337 336 334 333 333 333 330 321 323 326 323 323 323 322 322 327 328 324 319 320 321 326 333
329 334 337 339 339 338 339 336 335 340 341 344 348 347 347 344 342 342 340 338 336 330 326 330 332 333 331 318 318 322 325 322 320 320 319 318 320 325 326 321 322 320 320
328 333 340 339 339 338 337 338 337 340 339 342 346 346 343 343 343 338 337 336 334 328 323 322 328 331 324 315 314 319 326 324 323 321 321 320 318 318 322 322 322 320 319
335 338 342 339 338 337 336 337 339 341 340 338 338 335 340 342 340 336 337 335 332 330 326 325 325 323 320 311 312 320 324 322 320 321 321 321 320 309 312 319 319 318 314
330 334 342 343 342 339 340 336 333 336 337 334 332 333 336 338 337 338 337 336 330 328 319 316 318 313 316 306 308 318 321 319 318 318 319 309 316 308 309 319 317 315 316
329 329 331 331 333 336 338 335 333 330 331 331 331 332 334 336 337 337 337 333 327 324 317 314 315 317 311 314 307 308 318 317 316 315 313 314 305 303 302 306 318 317 320
327 327 325 325 327 332 326 323 322 324 326 326 326 328 329 331 334 335 329 325 322 319 319 313 314 315 315 305 306 306 309 311 314 310 308 306 300 299 300 306 301 303 308
327 327 325 323 324 329 332 325 321 323 323 324 325 324 322 324 328 326 323 321 319 316 317 315 315 315 313 313 303 303 305 307 310 310 306 301 298 300 304 302 302 305 312
330 330 329 325 323 327 328 325 324 324 323 322 321 322 322 321 319 322 323 321 322 316 316 315 314 311 310 312 311 309 309 307 309 307 308 305 306 304 308 311 311 312 311
328 329 327 328 324 325 324 325 324 324 322 320 319 320 318 315 309 306 311 317 315 318 318 316 316 310 309 308 304 306 309 310 305 309 311 311 313 315 314 313 313 312 311
330 328 328 327 324 324 324 322 324 324 321 318 317 317 315 314 312 309 305 300 300 299 300 303 309 311 302 296 295 295 295 296 298 310 312 312 310 309 309 308 309 310 309

GFSMW_sfc_thetae_042.txt.gz
Theta_e
348 352 354 353 347 348 336 333 332 354 355 353 356 353 342 345 350 346 351 356 357 356 361 363 358 358 356 355 357 354 353 354 353 351 346 347 352 352 349 349 347 348 349
349 349 350 352 348 343 345 346 347 360 360 357 356 352 344 347 347 349 350 358 350 358 358 358 356 357 357 356 356 356 354 352 354 345 343 338 343 346 349 349 349 350 349
346 347 347 349 346 345 349 350 355 358 359 355 351 350 351 348 345 349 353 358 356 357 358 356 357 357 355 348 355 354 352 344 347 350 344 339 332 346 348 350 349 352 349
347 348 348 342 346 349 352 351 353 357 355 357 353 352 346 344 350 351 357 352 355 354 354 354 354 355 352 354 353 353 354 351 345 347 347 349 349 342 341 348 348 351 348
345 346 345 340 344 347 353 356 358 355 355 357 356 353 351 354 349 350 354 355 354 351 350 352 353 354 359 357 356 354 354 352 350 348 345 345 346 350 345 340 339 345 344
343 346 345 340 342 346 352 355 356 354 356 355 357 356 354 352 349 349 346 347 348 346 351 351 349 351 355 356 355 355 353 350 350 347 344 346 343 342 346 344 343 342 339
343 339 339 338 341 341 347 354 354 351 353 353 355 356 353 353 351 348 345 343 343 342 348 351 350 348 353 355 355 354 353 353 352 350 349 347 351 353 352 349 342 333 339
341 341 341 339 338 339 346 350 353 350 352 353 356 358 354 348 347 347 345 343 342 343 346 349 348 349 351 352 351 348 348 351 354 349 353 353 352 355 354 348 344 335 333
346 341 341 337 345 346 349 353 351 350 351 354 356 355 355 350 348 348 349 344 346 344 346 345 344 346 347 348 349 345 344 346 346 349 350 353 356 357 357 351 345 342 332
336 339 345 348 352 354 352 351 351 350 352 353 353 352 352 350 349 350 346 347 347 346 346 343 343 344 345 347 348 345 345 346 345 345 346 348 351 356 358 354 346 345 341
336 341 345 351 354 351 349 350 349 351 349 345 351 351 349 348 347 345 345 346 345 345 345 343 343 343 343 343 343 344 342 340 340 342 342 342 346 345 348 352 352 350 344
338 341 345 351 349 345 343 347 349 348 345 344 350 351 349 347 345 344 345 346 343 344 344 343 343 342 342 342 341 340 340 338 336 337 340 341 342 344 344 345 342 347 347
340 344 346 347 345 340 344 346 347 344 340 348 349 350 348 347 346 345 344 345 343 342 342 341 340 339 340 339 339 339 339 339 336 336 337 336 339 336 336 338 337 337 339
340 345 343 344 337 335 337 346 344 344 343 344 349 349 349 348 346 346 345 343 344 342 341 341 339 338 338 337 336 336 337 337 337 338 337 336 336 336 338 337 339 339 333
340 343 341 343 336 336 343 346 345 345 346 344 347 350 351 349 349 346 345 344 343 342 341 340 340 337 335 334 335 331 334 334 334 335 334 333 328 324 326 336 338 339 334
334 341 344 345 336 340 343 345 346 346 345 345 346 349 350 349 348 346 344 344 343 342 340 339 338 336 331 322 323 329 330 329 329 329 330 332 332 325 322 324 323 327 335
335 339 342 345 342 342 343 345 346 348 345 346 348 350 350 348 348 347 343 341 342 340 338 338 339 336 333 319 320 325 329 328 328 328 327 326 326 329 331 324 324 322 322
333 337 344 345 345 343 346 343 341 338 344 346 347 351 348 348 347 346 344 343 341 338 335 336 338 336 329 316 317 322 332 330 330 329 328 326 322 321 326 326 322 318 320
341 346 347 347 349 346 344 342 338 338 341 344 346 348 349 347 345 341 344 343 339 338 335 336 336 334 330 313 314 322 330 329 329 328 328 328 322 311 313 323 321 318 314
340 343 346 347 345 345 343 339 338 338 342 343 344 342 346 345 342 343 345 341 340 336 334 332 333 322 331 308 310 319 327 324 323 327 326 312 318 310 310 325 322 320 320
334 341 344 344 343 344 344 341 340 341 343 340 340 339 341 341 343 344 344 338 336 335 332 328 326 329 326 324 307 310 321 322 321 320 321 320 305 303 304 306 321 319 321
332 333 332 332 335 338 343 341 334 332 334 335 337 337 337 338 342 339 337 332 330 330 329 328 326 325 327 308 307 307 311 314 316 313 314 309 301 300 302 309 303 304 308
335 336 336 334 333 334 335 337 333 333 332 332 330 331 332 335 337 338 327 325 325 328 322 322 324 321 325 323 304 304 307 310 313 313 308 302 300 301 304 303 304 303 316
336 338 336 335 334 333 333 331 331 330 330 330 329 329 328 327 327 327 326 324 326 323 320 323 324 323 321 322 322 321 314 307 311 307 306 308 307 305 310 310 312 314 313
336 336 335 334 331 331 329 327 326 327 327 326 326 326 323 320 314 310 315 322 320 324 323 323 321 322 322 319 309 310 316 315 310 311 311 312 316 317 316 315 315 314 315
337 336 335 334 332 332 329 328 328 326 325 325 326 326 326 319 315 314 309 301 301 299 302 304 314 317 302 296 296 296 296 298 300 311 315 316 316 316 313 313 311 312 311

GFSMW_sfc_thetae_045.txt.gz
Theta_e
348 353 353 353 349 344 346 341 338 341 350 354 358 351 344 342 345 348 351 352 353 360 364 365 364 366 365 359 359 356 356 350 352 349 347 348 350 351 350 351 347 350 352
347 353 354 346 341 346 346 350 346 349 356 361 358 355 347 346 348 348 351 352 355 358 359 360 361 359 358 358 356 357 354 353 355 347 352 340 343 343 347 347 349 347 349
350 352 352 346 346 349 348 357 353 359 362 359 355 352 351 349 344 347 350 351 355 356 356 356 356 357 357 348 360 355 354 352 356 354 346 339 340 342 347 350 349 352 355
351 351 351 344 350 349 356 359 361 362 358 357 355 354 346 345 355 354 358 361 355 354 353 354 355 356 352 357 354 361 357 355 348 355 355 349 350 343 341 353 357 354 352
349 349 351 345 351 352 352 352 362 361 358 359 358 353 354 357 353 353 353 357 356 351 351 354 357 356 357 358 356 357 355 356 351 350 350 350 347 346 345 336 342 344 345
348 350 351 343 349 350 353 356 360 358 359 357 357 354 352 353 353 354 352 349 348 348 352 351 353 353 354 357 358 357 355 355 355 355 348 344 347 347 343 344 338 339 339
347 345 343 342 344 347 352 355 357 355 356 355 355 356 355 355 353 351 347 347 343 344 351 353 353 352 355 356 357 356 355 354 353 353 352 349 350 351 353 348 337 337 341
344 345 344 342 342 344 350 353 354 353 354 354 356 359 356 349 347 348 345 344 349 349 349 350 350 351 353 353 353 349 349 351 352 352 354 354 355 357 357 352 339 334 338
346 345 341 341 343 343 348 353 353 353 353 354 358 357 354 350 349 351 354 347 349 346 347 346 346 348 348 349 351 347 349 351 351 350 352 355 357 358 356 353 349 339 331
346 341 342 348 348 349 354 356 355 352 353 355 354 352 353 351 350 349 347 348 347 349 347 345 345 345 348 350 352 348 347 346 346 347 349 351 354 355 355 354 352 350 344
339 343 347 350 353 354 353 352 353 353 353 352 353 352 350 350 348 346 347 347 347 347 346 345 346 345 345 345 346 346 343 341 341 344 344 345 350 352 351 355 353 350 350
340 342 347 349 351 349 345 350 351 350 349 350 352 352 350 348 346 345 346 346 345 346 346 345 345 344 344 344 343 341 342 338 338 339 341 342 341 343 345 343 346 348 349
339 342 345 350 351 345 346 348 347 345 344 347 349 349 348 348 347 345 346 346 344 344 343 343 342 342 342 341 342 342 340 338 337 338 339 338 341 339 340 340 339 339 339
341 345 347 352 352 342 347 347 346 344 343 344 347 348 348 348 347 349 347 345 344 343 342 343 341 340 340 339 339 339 339 339 338 337 336 334 335 337 340 339 342 338 330
339 345 346 349 348 339 345 348 346 345 342 347 347 348 351 351 351 349 347 346 345 343 342 342 340 339 337 334 335 337 337 336 336 335 333 331 329 327 328 337 339 340 330
337 342 346 349 345 340 345 348 347 346 346 343 346 350 351 351 350 348 346 346 344 343 343 341 340 337 330 324 326 331 332 332 332 332 333 334 331 326 323 325 325 332 338
336 338 343 348 347 343 345 347 349 349 347 346 347 351 350 350 349 349 347 345 344 344 340 340 339 337 331 321 322 328 332 332 331 331 331 329 329 332 331 325 324 323 324
336 339 345 348 348 345 347 349 349 350 347 346 349 350 351 350 350 349 348 346 344 341 340 340 342 338 328 318 318 323 334 333 333 332 330 326 326 321 327 321 318 319 320
345 346 350 348 350 346 349 345 345 347 344 341 346 347 351 351 349 347 348 348 344 341 338 339 339 336 331 315 316 320 334 332 331 331 328 328 323 314 313 324 320 317 314
343 346 349 351 350 349 348 346 342 340 337 339 346 348 350 352 350 347 349 350 345 341 336 338 339 328 333 313 312 316 330 329 328 330 327 313 318 308 308 327 325 322 322
338 345 349 347 349 348 347 343 341 337 342 341 345 345 341 342 347 348 350 347 344 342 339 335 336 334 331 326 310 311 327 324 325 325 323 316 306 305 306 308 323 321 322
337 341 340 341 344 348 346 344 342 340 341 338 341 340 341 344 345 346 349 346 340 335 336 333 331 332 331 317 309 309 312 320 321 319 319 312 304 302 304 311 305 306 308
336 337 338 339 340 341 344 341 336 337 337 336 336 334 335 336 341 344 339 334 332 331 331 330 330 328 330 327 306 306 309 312 318 319 311 304 301 301 305 306 308 306 316
339 340 338 337 335 337 337 337 335 334 334 333 332 331 332 333 334 336 331 328 327 327 328 329 325 327 328 327 325 322 318 309 314 308 309 309 310 307 312 311 312 315 313
339 339 337 336 335 333 334 335 333 333 332 330 330 329 329 326 318 314 315 326 326 321 328 329 327 327 326 324 312 316 323 320 314 313 312 312 315 317 318 315 315 315 315
338 337 337 335 334 333 333 332 333 332 330 329 329 328 328 320 316 314 311 302 301 300 303 303 315 318 304 299 298 297 298 300 302 312 312 315 318 317 313 313 312 313 311

GFSMW_sfc_thetae_048.txt.gz
Theta_e
347 351 346 343 339 345 354 350 347 347 353 358 355 345 344 344 342 348 348 350 351 354 354 352 356 356 357 355 355 353 351 352 353 349 348 349 352 351 351 351 350 346 352
348 348 343 343 346 348 349 352 348 357 361 362 363 353 346 344 345 344 347 348 351 352 357 355 352 352 354 354 354 353 352 352 354 345 345 338 343 347 347 347 348 345 349
348 348 345 344 346 347 349 351 352 358 364 363 356 354 353 344 343 343 346 349 352 352 351 355 356 357 357 353 355 356 353 347 353 352 344 337 334 340 347 344 345 347 347
352 352 348 346 347 349 352 358 360 360 364 364 356 357 353 348 350 354 352 352 356 354 355 356 355 353 356 355 355 357 354 352 345 351 349 347 345 337 333 341 344 345 346
351 350 351 349 351 349 352 354 360 362 362 364 363 358 357 358 354 355 357 357 351 353 352 353 355 355 356 357 356 357 355 353 348 348 347 345 344 344 339 333 338 340 342
347 351 351 350 352 351 352 351 359 362 363 363 361 363 359 358 352 352 351 351 353 350 354 352 354 356 355 355 356 353 352 353 352 350 349 345 342 341 340 337 336 332 335
348 350 346 345 350 350 353 352 357 356 359 359 359 359 359 359 355 353 350 343 345 345 348 349 352 353 354 355 354 353 353 352 349 348 348 348 346 347 345 340 334 332 335
347 345 344 345 345 347 353 356 354 356 358 357 360 360 360 353 350 352 349 347 347 347 350 349 350 350 352 352 352 351 350 350 350 349 348 348 349 348 345 338 335 330 335
342 344 342 341 344 347 353 355 356 356 356 354 355 357 355 355 350 353 357 347 350 347 348 345 346 347 347 350 353 346 345 348 349 348 348 348 348 348 349 347 341 337 330
344 342 338 342 343 345 350 357 355 357 358 352 352 355 354 354 353 354 352 350 349 348 347 345 345 345 346 349 348 344 344 343 342 343 344 346 348 348 350 348 347 343 338
341 341 342 347 346 348 353 353 354 356 355 353 352 354 352 352 352 352 350 349 350 345 346 346 345 345 347 348 347 344 341 340 341 342 341 342 344 345 346 346 346 343 337
340 343 345 348 349 347 349 352 354 354 353 349 346 347 352 350 350 350 348 350 351 350 348 346 346 346 345 346 344 340 339 337 334 336 338 338 340 340 341 342 342 342 340
340 341 345 350 347 348 347 349 351 349 347 350 346 350 349 349 350 350 349 349 349 348 346 346 344 343 343 343 343 341 339 337 334 334 334 335 339 337 340 340 336 334 332
341 343 350 355 348 349 347 347 346 345 344 345 348 348 350 350 349 351 350 349 349 347 346 346 344 344 342 340 341 340 340 337 334 332 331 330 330 333 340 339 334 330 326
339 346 349 351 345 344 349 349 348 345 344 343 346 349 352 352 351 350 350 349 349 346 347 345 345 343 334 327 331 339 338 337 335 333 329 328 328 328 327 334 334 328 324
338 344 346 349 344 342 346 349 349 348 345 345 349 352 352 349 350 351 348 349 347 347 348 345 342 334 327 324 326 333 335 336 335 334 333 332 330 325 324 325 325 332 328
336 340 345 349 344 344 348 349 349 353 345 347 349 350 352 350 349 350 348 345 346 347 346 342 339 333 329 324 326 326 336 334 334 331 329 329 325 329 326 324 324 322 324
336 340 345 349 348 346 349 352 350 352 351 347 347 346 347 347 344 349 347 346 346 345 344 343 341 335 325 321 320 323 338 336 335 331 328 328 325 318 322 318 316 315 317
345 347 350 352 350 348 352 349 348 350 349 346 344 340 344 345 345 346 346 347 345 344 342 342 340 335 328 318 318 318 338 335 332 329 325 326 324 312 312 320 317 315 311
345 346 350 352 348 353 353 349 345 343 343 341 341 339 340 340 341 344 347 347 344 341 339 340 340 331 332 314 313 316 327 332 328 328 323 311 313 309 308 328 323 317 315
344 349 351 348 351 351 349 345 343 340 341 343 339 336 338 336 340 339 342 344 344 341 339 338 336 337 333 323 313 312 332 328 327 326 321 314 307 307 307 308 320 319 319
341 344 342 342 345 350 348 345 345 344 343 342 339 338 337 337 339 341 339 339 338 338 336 335 334 334 333 319 309 311 314 324 327 322 321 311 304 303 305 311 307 309 309
338 339 339 340 341 343 345 344 343 344 342 340 339 336 337 337 335 337 344 337 336 333 332 330 330 330 331 325 307 307 310 313 323 323 313 305 301 302 303 308 308 307 315
340 341 339 337 336 337 338 337 338 339 337 335 334 333 333 332 332 333 335 333 330 329 327 328 328 328 329 326 321 318 317 310 316 310 310 310 311 311 312 311 312 317 315
341 340 339 336 335 335 334 335 334 334 332 331 330 330 329 328 322 314 312 322 323 323 326 326 327 327 327 326 318 319 323 320 317 315 313 312 313 315 315 316 319 318 315
338 338 337 336 336 336 334 334 334 335 332 329 329 329 328 324 318 313 311 303 301 299 300 303 316 313 305 298 299 299 301 302 303 314 311 310 312 314 316 316 316 314 313

GFSMW_sfc_thetae_051.txt.gz
Theta_e
339 338 337 338 335 337 336 341 345 338 338 348 340 338 337 338 339 342 343 345 345 348 347 347 348 348 345 347 346 344 341 341 344 339 338 341 344 345 345 345 346 345 346
337 337 339 340 338 338 343 336 336 338 341 350 347 341 336 341 339 338 343 344 346 348 348 346 348 347 345 344 344 343 341 342 343 336 334 328 333 339 344 344 346 344 346
336 336 338 338 340 342 343 342 343 349 350 348 344 343 339 337 337 338 343 345 349 350 347 347 347 346 345 343 343 343 342 338 340 341 334 327 325 330 337 338 340 343 343
342 339 341 340 343 344 344 350 340 348 354 345 342 340 339 333 335 342 344 345 348 348 347 347 347 346 346 344 345 347 342 341 336 339 342 339 335 327 324 335 340 341 341
346 343 342 345 346 345 349 351 351 351 349 349 344 345 342 344 345 344 344 342 342 345 347 345 344 344 345 345 344 343 341 342 340 338 337 335 335 335 329 323 333 337 339
347 347 347 347 345 347 347 349 350 350 347 349 347 344 343 343 341 339 338 338 342 342 345 346 343 343 343 343 344 344 343 342 342 340 339 336 332 331 331 327 330 330 333
344 343 340 342 341 344 345 347 348 347 349 348 346 346 346 345 341 339 335 334 338 339 341 343 342 342 342 344 344 342 342 341 339 338 337 338 338 337 335 333 331 330 333
344 342 339 340 341 342 345 348 348 346 348 346 346 347 344 342 341 340 336 338 338 338 340 340 341 341 342 343 342 340 340 340 340 339 340 338 339 340 338 335 332 328 330
341 340 340 338 338 340 348 351 346 346 345 342 345 345 344 340 338 339 339 339 341 341 338 342 341 341 342 341 338 336 337 337 337 338 338 338 339 340 340 338 335 329 325
338 336 334 336 337 340 348 349 346 346 344 342 343 345 345 341 340 339 339 338 337 337 337 337 338 337 338 339 336 334 337 335 334 336 336 337 339 340 340 338 337 335 331
337 332 334 336 337 341 349 348 347 345 342 340 342 345 344 341 341 339 338 337 337 337 339 339 338 336 335 337 335 333 333 331 333 334 332 332 335 335 339 338 336 332 326
333 336 338 338 344 344 347 346 346 344 341 340 343 345 341 339 339 337 337 337 335 337 338 337 335 334 334 335 332 330 332 332 331 332 332 334 336 333 335 335 330 329 325
335 337 340 340 341 341 344 345 344 342 341 341 340 340 339 338 338 337 337 336 336 335 335 334 332 332 332 332 333 332 330 327 325 324 324 325 328 332 331 328 326 324 323
337 341 338 339 339 339 339 342 343 342 341 340 339 340 339 339 339 338 337 337 337 335 333 333 333 332 328 328 331 332 328 325 323 323 322 322 323 325 330 326 322 323 320
337 344 340 335 335 339 339 340 340 339 338 337 340 340 340 341 340 339 338 337 337 335 334 332 330 324 322 324 327 329 328 325 323 322 321 322 327 328 329 326 320 319 318
340 341 343 335 334 338 340 341 340 338 335 334 337 344 343 342 339 340 338 337 335 335 334 332 324 320 322 322 325 327 326 326 325 322 322 323 324 324 324 324 328 322 318
339 340 339 339 335 335 338 340 340 340 337 336 342 343 341 341 340 341 338 336 334 334 331 328 323 319 317 321 320 328 324 324 320 319 322 319 320 316 314 317 319 321 324
336 339 341 340 336 337 339 342 342 341 336 334 336 339 338 339 341 340 336 338 336 333 331 330 324 319 317 319 320 321 325 324 322 319 319 315 311 312 310 306 304 304 309
339 339 343 339 338 340 342 342 341 342 341 338 334 336 337 337 337 337 337 337 336 334 332 332 325 319 314 316 315 320 325 323 319 317 318 316 309 312 314 307 303 300 300
340 342 345 343 344 342 342 339 337 335 336 333 335 335 334 333 333 334 331 334 337 333 333 332 329 322 318 312 312 314 318 320 319 314 309 312 307 308 311 310 305 302 303
339 340 342 341 343 343 340 336 334 333 334 336 333 331 332 329 332 334 335 334 335 333 332 331 331 327 320 313 312 310 322 322 319 316 312 303 307 305 305 309 315 311 310
336 337 334 334 336 337 338 335 332 334 335 333 331 329 332 335 334 334 333 334 335 332 331 330 329 330 324 311 309 310 314 318 317 314 310 305 303 302 303 303 305 306 307
334 337 333 330 332 334 339 334 335 337 336 331 329 328 329 331 331 330 332 334 334 333 330 328 327 327 323 315 307 308 311 313 314 313 309 304 300 300 301 305 305 305 306
333 334 331 329 330 332 333 333 332 333 333 331 330 328 325 325 324 327 330 332 332 331 329 326 326 326 325 314 309 310 310 311 309 309 304 303 303 306 308 305 304 305 303
335 333 330 327 326 327 327 327 330 328 328 328 328 327 327 324 319 311 309 314 318 319 329 328 328 326 324 319 312 310 312 309 308 305 302 300 301 305 306 305 305 308 302
330 329 329 328 328 328 326 326 326 328 328 327 326 326 326 322 315 314 310 303 301 300 301 304 318 312 304 306 304 304 304 304 303 305 302 300 301 303 306 306 306 302 307

GFSMW_sfc_thetae_054.txt.gz
Theta_e
335 335 336 337 334 334 334 333 340 338 340 344 334 333 332 335 338 340 342 342 345 345 342 342 344 344 343 344 345 342 340 339 341 338 336 338 341 342 343 345 344 344 347
333 335 337 337 334 336 339 338 340 335 336 345 342 336 333 336 336 340 340 342 343 346 346 343 344 345 344 343 343 342 339 340 340 334 331 327 330 335 340 341 343 341 345
333 334 336 335 337 337 340 333 335 337 342 344 338 336 335 334 333 335 341 344 345 346 345 344 343 344 343 342 341 341 339 335 337 339 332 325 323 327 334 338 339 341 342
336 337 336 335 337 340 342 339 343 347 346 340 338 334 331 328 331 337 340 344 346 345 345 345 344 343 343 343 342 344 339 338 335 337 340 336 333 325 322 335 337 340 339
337 335 336 339 343 343 342 345 337 347 349 340 338 339 336 338 341 341 339 338 341 345 345 343 344 343 343 342 342 341 339 340 337 336 335 334 333 332 327 323 331 335 338
340 339 340 343 343 344 349 348 346 346 346 343 342 341 341 339 337 336 333 337 337 340 342 343 341 340 341 341 341 340 340 339 338 337 337 334 330 328 328 327 329 329 332
343 342 341 341 340 343 344 347 346 341 345 345 343 346 344 339 336 334 332 334 335 336 337 339 340 340 341 341 340 339 338 337 335 335 335 337 335 335 332 331 331 329 332
341 339 340 340 339 343 343 347 344 341 342 342 343 345 344 340 339 334 335 335 334 335 336 339 339 340 341 339 338 336 337 336 336 335 335 335 336 337 336 331 329 328 329
340 338 336 340 338 339 342 345 345 343 341 341 342 342 341 336 335 335 336 335 335 337 337 338 337 340 338 337 335 334 333 333 333 334 335 335 336 337 337 335 334 330 324
339 338 337 335 337 336 344 348 343 342 341 340 342 343 339 337 337 336 335 334 334 335 335 335 334 336 336 333 331 331 332 332 332 332 332 334 334 335 336 335 333 334 329
334 335 334 334 334 340 346 345 343 341 338 339 340 342 341 338 338 335 334 334 334 334 334 336 334 333 333 332 329 328 329 329 329 329 330 330 332 333 334 334 332 331 325
335 336 334 335 334 343 344 344 341 339 338 338 340 342 339 337 335 333 334 332 332 333 333 333 331 333 332 329 328 328 328 325 325 325 326 327 334 330 330 328 325 323 322
334 334 334 335 339 342 342 342 340 339 337 338 339 339 335 336 334 334 334 334 332 332 332 331 330 330 331 329 328 326 324 322 322 322 322 324 328 325 324 324 321 323 324
331 335 335 336 337 340 340 340 340 339 337 338 337 337 335 335 335 334 333 334 333 331 330 329 329 327 328 330 328 323 321 320 320 321 321 322 325 324 321 320 319 320 321
337 336 334 334 334 335 337 340 340 338 337 336 336 337 336 336 336 334 335 334 332 331 330 329 323 321 323 328 327 323 320 319 318 319 321 322 328 330 326 320 316 316 318
339 337 336 335 335 336 336 337 338 336 335 335 336 338 338 337 336 336 335 333 332 331 329 324 320 318 323 321 325 326 323 321 318 318 318 319 320 323 326 325 323 319 316
341 340 336 334 334 337 338 337 337 336 333 332 334 338 339 337 336 339 336 335 331 331 328 320 318 317 319 319 322 325 322 320 320 319 315 315 316 315 315 320 322 323 323
338 338 338 334 332 335 337 338 337 336 334 333 335 337 336 336 336 337 334 334 333 330 325 321 318 316 317 317 318 323 320 317 317 316 313 309 309 309 308 305 306 308 312
336 338 339 335 332 334 338 338 337 338 336 333 333 334 336 334 335 332 329 330 332 333 330 324 319 316 314 313 316 321 320 317 315 315 313 310 308 312 309 301 298 297 299
339 340 337 335 334 337 339 336 334 334 332 331 332 332 332 332 331 331 330 328 329 332 333 330 323 316 314 311 311 318 321 315 313 310 310 313 308 310 308 301 301 301 300
334 335 336 335 336 337 335 333 332 329 330 331 330 329 327 326 328 331 329 326 329 333 332 330 328 322 315 312 309 310 320 318 314 311 306 303 307 304 306 306 304 305 304
332 332 331 329 330 334 333 329 329 330 331 329 327 325 327 331 331 331 329 327 328 329 330 329 328 327 320 311 308 310 314 318 317 313 309 304 303 301 303 302 306 305 307
331 330 328 327 329 333 332 332 332 332 331 328 326 326 325 326 327 326 327 328 330 331 330 330 328 327 324 314 307 308 311 314 316 315 311 304 300 300 301 304 304 304 304
329 328 326 324 324 329 332 331 331 332 331 331 329 327 324 323 321 321 323 326 331 330 331 329 327 327 323 317 312 312 312 312 314 313 308 304 302 302 304 304 302 303 301
330 327 323 322 322 323 323 324 325 328 327 327 327 327 326 324 319 314 311 313 318 313 325 330 329 326 324 321 311 310 311 309 307 302 300 298 299 300 302 303 302 303 300
328 325 324 324 323 323 323 322 323 324 323 321 321 322 325 323 318 316 314 305 302 300 298 302 317 318 310 307 303 300 300 301 300 301 299 298 299 301 302 303 303 304 305

GFSMW_sfc_thetae_057.txt.gz
Theta_e
333 336 335 337 333 332 330 328 336 336 340 336 333 331 332 335 337 341 343 343 342 343 340 339 339 341 341 341 343 341 339 337 339 336 336 336 339 340 340 342 342 344 345
331 333 333 334 332 332 336 333 338 334 338 341 336 332 332 334 335 340 339 341 341 342 342 340 340 341 341 341 342 342 337 338 339 333 330 325 328 334 338 338 341 340 343
330 332 333 333 335 336 335 335 336 333 336 342 334 332 332 332 332 334 339 340 343 344 343 344 341 342 341 340 341 340 339 335 336 337 331 324 322 325 337 338 339 340 340
333 333 333 331 334 336 338 334 336 338 344 338 334 330 328 327 330 335 338 342 346 345 345 343 343 342 344 342 341 342 339 336 333 335 338 333 330 323 321 335 336 339 338
334 334 334 333 338 341 340 338 340 345 341 337 335 334 332 334 336 337 336 335 339 343 344 342 341 340 340 340 340 340 339 338 336 334 333 332 332 330 327 326 330 335 336
335 336 337 337 341 342 342 343 336 344 343 337 337 341 338 340 335 334 332 335 336 338 340 343 339 340 338 339 339 339 339 339 337 336 335 332 329 327 326 328 329 328 331
338 336 336 337 339 340 345 345 342 341 342 341 340 342 340 340 334 331 332 332 333 334 336 338 338 339 339 339 338 336 336 336 334 333 334 336 333 332 329 328 329 328 331
341 340 340 339 339 342 343 345 343 339 341 341 340 342 340 338 334 333 332 333 332 333 334 336 337 339 339 337 337 336 336 334 334 333 333 334 335 335 332 330 330 327 328
342 341 340 339 338 341 341 344 343 341 340 340 339 341 339 337 333 332 333 333 333 335 334 335 336 337 336 335 334 332 331 332 332 332 333 333 334 336 335 332 333 328 323
339 337 336 339 338 338 341 342 343 341 339 339 338 341 338 336 334 334 333 333 332 333 333 333 334 334 332 331 331 330 331 330 329 330 331 332 332 334 334 333 331 333 328
336 338 337 336 338 335 341 343 342 340 337 337 338 339 336 337 335 333 333 332 330 331 332 332 332 331 330 329 327 326 327 327 327 327 328 329 331 331 332 332 335 331 328
335 335 334 333 332 337 342 342 340 339 337 337 339 339 337 337 334 332 332 332 331 331 332 331 331 331 329 327 326 326 325 324 323 323 326 328 331 326 326 327 327 326 325
331 333 331 331 332 339 340 340 340 339 336 337 338 337 334 335 332 332 332 331 331 331 331 330 330 328 327 326 324 323 321 321 321 321 324 325 325 322 321 320 322 323 325
328 330 330 332 335 338 339 339 338 337 335 337 336 336 333 334 332 332 332 332 331 330 328 328 328 328 328 326 322 320 319 319 319 320 322 323 322 321 319 319 323 323 322
323 332 332 333 334 336 337 338 338 336 335 335 335 335 334 334 333 333 332 333 330 330 328 327 323 325 327 326 320 318 317 317 317 318 321 323 327 326 323 319 317 321 320
330 335 334 334 334 336 336 338 338 336 334 334 334 336 335 334 334 333 334 333 331 329 328 323 320 320 326 323 323 321 318 317 316 315 316 317 324 325 324 323 322 318 317
336 334 333 334 333 334 336 336 337 336 333 333 334 335 336 333 334 335 334 334 331 331 326 321 318 318 320 320 321 325 320 318 316 314 312 314 317 320 319 322 322 322 322
339 336 334 334 333 335 335 336 336 334 332 330 331 334 335 334 334 335 334 334 333 332 328 323 318 317 318 317 317 321 319 317 318 314 310 310 310 311 313 312 311 311 312
337 338 337 334 332 334 336 336 334 333 332 330 330 333 334 332 332 330 329 331 331 332 329 326 321 317 316 313 315 318 316 315 315 313 309 308 307 310 309 305 301 299 300
338 338 337 333 331 332 336 335 333 333 331 330 331 331 330 330 330 327 325 327 330 330 332 328 325 319 318 310 312 317 316 312 312 310 310 313 307 309 305 298 297 297 298
335 336 334 331 331 334 334 331 329 328 329 330 328 328 327 326 326 326 325 324 326 331 328 329 327 324 318 315 309 313 318 316 311 309 306 305 308 306 303 302 304 303 302
333 333 331 330 331 332 331 327 328 326 328 326 324 324 324 326 327 326 326 324 324 323 329 327 327 326 323 311 307 309 314 316 314 312 309 305 304 302 303 304 304 304 307
330 330 331 331 330 330 331 331 330 328 327 325 327 327 325 324 323 323 327 324 322 324 328 328 328 327 327 320 308 307 309 312 316 314 311 305 300 299 301 302 304 305 303
327 329 328 328 328 330 331 331 332 332 331 329 326 326 325 324 323 321 321 322 327 327 328 329 328 328 327 321 315 312 314 314 317 315 311 305 302 302 303 303 302 301 301
326 327 326 326 324 324 324 324 325 325 325 326 326 327 326 324 321 315 315 315 316 314 317 325 329 329 326 324 317 314 316 315 314 308 301 299 298 298 300 302 299 301 300
325 323 323 323 322 322 322 321 322 323 321 319 319 318 318 317 316 315 315 306 305 301 298 297 301 322 311 305 306 303 305 301 300 303 302 300 299 299 299 302 302 301 304

GFSMW_sfc_thetae_060.txt.gz
Theta_e
333 336 334 335 333 332 330 328 331 340 340 336 334 333 334 339 340 342 343 344 344 345 343 343 343 343 342 343 344 344 340 341 340 341 342 341 341 342 343 345 347 349 350
331 333 333 333 332 331 330 329 335 338 341 340 335 334 335 336 337 341 341 343 343 344 344 343 341 342 342 343 344 345 338 339 342 340 337 333 334 338 342 343 345 345 348
330 332 332 332 332 333 336 333 337 336 338 343 334 334 334 334 334 336 338 341 344 345 345 345 344 344 344 343 344 344 343 339 342 342 337 329 326 332 339 339 341 342 342
334 334 332 332 334 336 339 335 338 335 337 340 334 333 330 329 332 336 341 342 347 346 346 345 345 345 343 342 342 343 343 341 338 339 341 338 335 329 328 337 338 339 340
329 333 334 333 334 338 339 336 336 338 344 339 335 335 334 336 338 339 339 341 342 344 345 344 345 344 343 344 343 345 343 342 340 340 338 339 337 336 332 328 332 336 335
322 327 337 335 335 341 340 339 340 343 343 339 337 341 338 338 338 338 336 337 339 341 343 343 343 343 343 343 344 344 344 343 343 341 339 337 336 334 333 331 331 330 331
321 331 335 335 334 340 339 342 337 341 344 339 339 342 341 340 338 337 334 336 337 338 340 342 341 342 343 344 343 343 342 341 340 339 339 341 339 337 335 334 331 330 331
323 335 336 336 335 340 341 345 339 341 342 341 340 341 341 341 339 336 336 336 337 338 339 340 341 343 342 341 341 340 340 340 339 339 339 340 341 340 338 336 333 327 328
336 337 338 339 339 339 342 344 344 343 340 342 341 341 341 339 337 336 336 336 337 338 339 339 340 340 339 338 338 337 337 338 337 338 339 340 340 341 340 339 337 334 323
340 341 340 340 339 340 342 342 345 344 341 341 340 342 340 338 336 336 336 336 336 337 337 337 338 337 336 336 336 335 334 333 334 335 337 338 339 341 340 340 338 337 331
339 339 339 339 340 339 340 341 343 343 341 339 339 340 338 336 337 337 337 336 336 335 336 336 337 334 334 333 332 332 332 332 332 333 334 335 337 339 339 338 338 336 330
336 338 338 336 337 336 338 341 342 342 340 339 339 339 337 337 336 336 336 335 335 335 336 336 335 334 332 331 331 330 329 329 329 330 333 333 334 333 336 336 333 330 329
333 335 335 334 334 335 339 342 342 342 340 339 339 339 337 337 335 335 335 335 334 334 335 334 334 332 331 330 328 327 327 327 326 328 330 330 330 329 329 329 328 328 328
330 331 332 332 332 336 340 340 341 340 337 338 338 337 336 337 335 335 335 335 334 334 333 333 334 332 331 329 325 325 325 325 325 327 328 328 328 328 326 327 328 327 325
320 326 330 331 333 337 339 340 340 338 337 337 337 337 336 337 336 335 335 335 334 333 332 331 330 332 331 325 323 324 323 324 323 325 329 330 329 326 325 326 326 325 323
320 326 333 333 334 337 339 340 339 337 337 337 336 338 337 337 336 335 335 335 333 331 331 329 328 328 331 322 321 322 322 322 322 322 323 325 326 326 324 323 324 326 323
323 330 334 334 335 338 340 339 339 338 336 336 337 337 338 336 336 336 335 334 332 331 330 327 325 325 327 320 320 322 322 322 321 320 321 323 323 324 324 323 323 323 322
326 335 335 334 336 337 337 338 339 338 335 334 335 337 337 337 336 335 334 335 335 333 330 326 323 323 324 318 317 322 324 323 323 320 318 321 321 322 322 322 321 320 322
328 338 336 336 335 336 337 337 336 336 335 333 333 335 337 336 335 335 335 335 335 334 329 328 324 321 321 314 314 320 323 322 323 318 315 318 318 312 313 319 314 313 313
333 338 336 334 335 335 337 336 334 334 333 333 333 335 335 334 332 331 330 331 332 331 332 326 324 321 322 312 310 317 321 320 318 317 315 313 314 308 307 313 310 310 309
335 336 334 334 334 335 336 334 333 333 334 333 332 332 332 331 332 330 329 328 329 331 331 328 326 325 322 321 309 309 320 319 316 316 315 314 309 305 301 303 308 308 308
331 332 331 330 331 334 333 330 330 329 330 329 328 328 327 328 330 330 330 328 327 329 329 330 327 326 324 314 310 308 310 316 317 316 316 314 305 302 301 304 305 303 308
330 331 332 332 331 330 332 329 330 330 328 325 327 328 329 328 327 329 330 328 326 325 327 326 326 327 326 324 310 308 308 311 318 320 315 308 301 300 303 304 304 305 312
328 329 330 330 330 330 331 331 331 331 329 326 328 329 328 327 326 324 324 324 324 326 327 329 328 328 329 326 322 315 315 312 316 317 316 310 306 304 307 306 306 312 311
330 331 330 328 329 329 328 330 331 332 331 329 328 327 326 326 324 321 321 320 321 319 322 321 323 327 328 328 318 316 317 318 318 316 310 306 305 304 305 307 307 307 308
328 327 326 326 325 326 324 325 326 327 326 324 324 323 323 323 321 318 319 309 307 302 299 297 302 316 310 304 302 302 304 306 306 312 309 309 306 304 303 304 306 306 308

GFSMW_sfc_thetae_063.txt.gz
Theta_e
341 343 341 340 338 340 342 342 341 347 351 350 347 343 343 345 346 348 353 352 353 350 348 345 348 349 347 349 351 350 349 348 350 341 348 349 351 352 352 348 350 355 356
338 339 342 341 340 340 340 340 341 352 351 350 347 346 346 344 349 348 347 345 348 348 347 345 345 353 349 350 350 350 347 349 341 338 340 338 340 347 347 349 349 352 355
338 340 339 340 339 339 340 340 342 352 352 353 345 345 345 345 344 345 345 343 344 344 348 351 351 351 350 345 349 350 349 344 342 344 346 340 333 338 345 344 345 346 347
341 340 338 340 340 341 343 347 343 351 352 354 345 344 341 340 344 345 348 347 346 347 350 352 351 354 352 351 350 355 353 352 340 346 349 348 345 337 333 342 341 343 343
340 338 337 342 342 343 345 345 348 350 348 353 350 343 344 344 343 347 350 351 349 348 347 345 347 349 347 346 344 347 344 347 352 347 345 345 342 342 339 331 335 338 338
340 341 343 343 342 344 345 346 345 347 348 354 351 346 350 349 347 344 345 347 348 350 350 346 346 348 346 348 348 348 353 352 350 349 347 344 341 339 341 338 336 333 332
330 333 340 342 342 342 348 346 348 350 354 354 350 348 350 346 344 348 346 346 347 348 350 353 346 346 348 347 348 351 352 351 350 350 348 347 345 349 349 346 334 332 332
328 335 342 344 343 341 348 347 347 350 355 355 351 350 351 351 344 349 347 346 348 348 350 351 351 350 348 352 352 351 351 352 350 348 348 346 346 348 346 344 337 330 328
330 332 341 344 344 344 347 348 349 351 352 355 353 350 351 350 348 348 348 348 348 346 348 348 350 350 349 346 349 347 344 346 349 348 348 346 348 351 349 347 343 335 326
331 334 343 345 346 347 349 350 354 353 353 354 353 352 351 350 348 346 346 347 346 347 346 347 348 346 345 346 346 345 344 342 346 346 347 347 346 349 349 346 345 342 334
333 342 347 347 347 348 348 351 353 354 353 353 352 351 349 349 347 346 346 347 346 346 345 345 346 344 343 343 344 344 342 341 342 343 342 343 345 345 347 347 349 339 334
344 348 349 349 348 347 348 350 353 354 355 353 351 350 349 348 346 346 346 345 345 345 345 345 345 343 342 341 340 339 340 340 339 340 342 342 344 340 345 343 342 338 332
336 348 348 347 348 348 347 349 351 352 353 351 349 348 347 346 346 346 345 345 345 344 344 344 344 342 340 339 339 339 338 338 338 340 341 341 343 338 340 343 338 332 330
334 339 348 348 347 348 348 347 350 352 352 350 348 348 346 346 346 346 346 345 344 343 344 344 344 342 339 338 334 334 337 338 339 340 339 339 341 340 337 339 337 335 330
331 336 344 347 346 346 347 349 351 352 351 349 347 347 348 348 347 345 345 344 344 343 342 340 343 341 340 335 332 335 335 337 338 338 338 338 334 328 335 336 336 335 329
329 330 339 343 344 344 347 350 351 351 350 348 347 348 347 347 347 346 345 344 342 341 339 334 337 340 337 320 322 331 334 334 336 336 335 335 331 328 325 327 328 332 330
329 330 332 342 345 345 348 350 352 351 349 347 347 347 348 346 347 346 345 344 342 341 338 336 331 333 338 319 319 323 331 331 332 335 336 332 330 332 333 325 324 324 324
328 331 334 342 347 348 349 352 352 349 347 346 346 347 347 347 347 346 345 345 344 342 342 331 329 327 330 318 316 321 332 332 331 330 331 335 332 331 332 333 332 331 331
331 336 345 348 347 347 351 351 349 349 347 345 345 346 347 346 346 343 340 341 342 340 338 335 327 323 325 315 314 322 333 331 332 330 326 330 332 317 318 331 330 330 329
334 340 348 347 347 350 350 349 348 348 346 347 346 346 346 346 341 340 337 339 338 339 335 332 336 323 324 313 310 318 333 331 330 331 327 314 324 310 311 331 330 329 328
341 342 346 344 346 346 347 346 346 345 346 345 344 345 345 345 345 343 341 340 340 338 338 335 334 325 323 322 311 309 331 329 328 327 325 324 309 305 304 310 327 326 325
336 339 336 334 335 337 342 343 343 343 344 343 342 341 341 340 340 341 338 337 338 336 334 334 332 331 329 316 309 309 311 320 325 324 324 325 306 302 300 304 306 303 311
337 339 335 330 327 327 333 333 333 337 338 338 335 333 334 334 334 334 333 332 335 334 333 329 332 333 333 332 309 306 309 313 320 326 323 313 302 300 303 302 304 303 312
336 334 328 324 322 325 332 332 332 334 333 333 332 335 336 336 337 336 335 335 332 331 332 330 329 331 332 331 332 320 314 312 318 321 324 320 314 309 314 314 309 316 318
336 333 330 328 328 333 333 333 333 335 334 333 334 335 334 334 334 333 332 331 332 326 329 329 328 326 329 330 317 320 325 323 319 320 325 321 320 318 316 316 317 319 320
334 332 330 331 332 333 334 334 335 336 336 334 333 332 332 332 331 330 330 310 310 303 300 299 307 323 311 302 297 299 300 302 305 318 319 318 319 318 316 313 315 315 313

GFSMW_sfc_thetae_066.txt.gz
Theta_e
348 351 351 346 345 347 350 351 350 351 355 354 351 350 345 351 351 352 355 356 356 355 348 352 349 347 347 348 346 350 352 347 350 351 346 349 355 355 360 361 357 351 355
346 348 351 346 346 346 349 350 351 357 357 354 354 352 354 351 355 352 355 355 354 354 350 349 348 349 350 353 354 353 347 347 357 345 340 336 346 349 354 353 352 354 359
345 347 349 347 346 346 347 349 351 358 359 356 352 353 353 351 349 351 350 351 348 350 354 349 346 348 346 354 356 356 352 347 353 345 340 333 334 344 347 348 350 350 351
346 349 349 349 347 347 347 350 350 357 358 359 350 350 347 346 348 351 349 349 351 351 346 348 353 358 363 357 354 358 357 359 351 347 348 346 347 341 337 344 347 347 347
345 348 348 348 349 348 348 351 351 355 358 358 355 348 350 354 350 351 352 355 355 349 346 348 351 353 358 357 357 354 351 349 343 342 350 350 350 347 342 338 338 340 342
345 349 350 346 350 349 350 349 352 355 357 356 358 355 351 351 350 349 350 351 356 353 353 349 349 347 350 352 352 348 348 348 347 351 351 347 343 342 342 342 340 340 333
344 347 345 346 350 348 351 350 351 352 354 354 358 357 353 352 346 348 349 347 345 350 353 354 354 348 348 354 355 355 355 354 352 354 350 352 354 354 350 347 340 338 334
338 339 338 347 350 348 353 353 352 354 357 358 359 358 355 356 349 350 352 346 347 353 354 353 353 355 349 349 355 351 352 353 354 352 354 354 358 357 353 350 346 335 333
335 334 339 347 350 349 352 353 352 354 356 357 359 358 357 353 350 352 354 348 353 349 351 350 351 353 352 353 352 351 351 352 353 352 352 349 348 352 353 351 354 341 328
337 337 338 350 351 351 353 354 353 355 355 357 358 357 355 355 354 353 350 350 351 351 349 348 350 351 352 353 352 349 346 349 348 349 350 350 350 352 355 356 356 350 339
338 336 341 351 351 351 351 352 355 357 356 359 359 357 355 354 353 351 350 350 350 348 349 349 349 348 348 350 349 347 346 346 346 347 346 348 351 348 352 355 354 349 342
335 342 349 350 350 348 349 353 357 357 359 359 359 356 356 354 352 351 351 351 349 349 348 347 347 347 346 347 344 343 344 341 341 342 346 346 346 349 351 352 350 351 344
340 349 350 350 349 349 350 352 356 356 358 360 358 355 353 352 352 351 351 349 348 347 347 347 346 346 344 344 343 343 343 342 343 342 342 342 344 345 347 349 346 344 340
339 349 353 353 353 352 351 352 353 355 357 357 355 352 352 351 351 350 350 349 349 348 347 347 346 346 344 343 342 338 340 343 343 343 342 342 341 342 341 346 342 342 330
339 340 349 355 355 354 353 353 354 355 358 357 352 352 352 351 352 350 350 349 349 348 349 347 346 345 343 341 340 339 340 340 341 342 342 342 336 330 336 340 342 339 334
339 338 342 349 355 355 353 353 355 357 358 356 351 353 353 351 351 350 349 350 349 348 348 346 344 341 339 322 326 333 338 340 339 340 341 341 333 330 326 329 329 337 337
335 340 339 343 352 355 355 353 355 359 357 355 352 352 353 350 351 351 351 350 350 350 348 346 344 339 338 320 321 325 337 336 338 340 340 336 333 335 338 326 326 326 326
334 336 339 340 349 354 355 356 357 358 356 353 350 352 352 350 351 352 351 351 349 348 347 346 344 332 333 318 317 321 337 336 336 337 338 340 337 336 337 337 335 334 334
344 338 339 341 346 353 355 356 356 356 355 351 350 350 351 350 350 350 351 351 346 347 347 347 343 331 328 315 314 319 336 335 336 335 334 335 336 321 321 335 335 335 335
347 340 346 351 351 355 356 356 353 354 352 351 350 352 352 350 350 351 350 346 344 344 342 342 342 331 329 311 311 317 334 335 333 337 334 317 325 314 314 334 333 332 333
343 348 348 352 353 356 358 355 353 350 351 352 351 351 351 352 350 349 348 346 345 344 342 340 341 339 334 327 309 310 331 333 332 331 331 331 311 308 307 309 334 330 333
340 345 343 344 351 355 354 351 347 349 348 351 349 348 347 348 345 347 344 342 342 339 340 338 336 338 337 320 310 308 310 322 331 332 333 330 306 303 303 308 308 307 316
338 339 340 344 348 351 350 342 338 341 343 343 339 342 342 344 343 343 341 337 341 337 336 334 335 336 338 337 311 307 308 311 323 329 325 312 303 302 303 302 305 303 315
335 339 339 343 344 347 345 342 341 341 341 336 334 336 337 339 340 341 340 337 337 337 334 336 336 336 337 335 335 327 321 313 320 322 328 323 320 314 318 314 309 315 321
335 338 340 338 337 338 339 341 341 340 338 336 334 336 338 336 339 340 337 337 340 330 335 334 334 333 331 328 310 315 333 333 327 324 331 330 328 326 321 323 325 322 321
333 337 338 339 338 337 338 340 340 341 339 335 336 336 336 336 334 333 332 313 308 305 302 301 311 329 311 301 298 297 297 300 302 318 322 325 328 326 328 328 326 326 322

GFSMW_sfc_thetae_069.txt.gz
Theta_e
350 355 355 354 353 352 354 358 354 357 356 354 352 349 346 352 352 355 358 358 359 354 353 353 360 355 351 355 357 358 355 348 351 352 345 347 350 349 351 355 356 358 358
347 352 354 351 351 351 353 355 355 356 359 356 354 351 352 353 354 357 358 358 357 357 357 354 350 353 351 353 351 349 348 348 353 348 351 336 342 347 352 361 356 356 360
345 350 353 351 351 351 351 353 355 359 360 359 353 354 353 353 350 353 354 353 355 356 356 351 350 351 349 345 349 353 354 352 359 356 347 336 335 337 354 353 351 351 351
346 351 352 353 351 351 353 353 354 359 360 360 354 353 349 349 354 351 352 352 353 352 354 355 353 348 348 351 346 356 358 357 351 354 350 348 345 333 331 346 349 351 350
345 349 352 354 354 352 352 351 354 356 360 360 357 351 351 352 349 348 353 354 354 352 349 346 350 348 353 358 357 357 357 358 354 353 345 345 342 341 338 333 343 344 343
345 349 354 355 353 353 353 353 354 356 360 359 357 356 353 351 349 352 349 352 351 353 351 346 348 348 349 353 351 355 354 354 353 348 343 342 347 345 343 342 343 339 334
345 348 352 349 351 351 352 353 354 355 357 356 357 357 354 352 349 347 347 354 350 350 352 353 352 349 351 348 349 353 352 351 352 352 350 349 349 353 351 349 345 337 334
345 348 351 349 348 351 353 354 354 355 356 355 360 358 356 351 346 351 351 346 344 348 355 354 354 354 353 350 349 354 354 355 355 353 354 354 358 358 356 351 346 332 331
343 346 340 346 352 352 354 355 355 357 358 358 360 359 357 354 351 355 356 348 352 349 350 351 351 353 354 353 352 348 345 347 349 348 350 349 352 350 359 352 349 342 328
336 336 338 346 351 352 354 355 355 356 358 358 358 358 356 356 356 355 353 350 352 351 349 348 348 351 351 352 353 355 350 349 349 349 351 351 350 354 359 356 352 347 344
338 341 340 349 351 351 351 352 354 356 357 358 359 358 354 355 354 353 351 351 351 350 349 348 352 351 349 350 349 349 348 346 347 349 348 349 351 350 355 357 347 350 350
341 338 337 348 348 349 349 351 355 357 357 359 358 357 356 356 354 353 350 352 350 350 349 348 346 349 348 346 346 344 343 343 342 343 345 346 347 349 353 354 349 350 352
337 340 345 347 348 349 349 352 355 354 356 359 358 353 354 354 355 352 351 351 350 349 348 347 347 349 349 343 344 344 343 343 343 343 344 344 345 346 349 350 350 349 348
340 346 349 350 351 350 350 351 353 353 354 357 355 352 353 354 353 352 351 350 350 349 349 348 348 346 345 344 343 340 340 343 343 343 343 343 343 345 346 347 348 347 340
340 348 350 353 354 352 352 352 353 354 354 355 355 352 354 354 353 351 350 350 349 349 350 348 348 347 344 340 343 340 340 342 342 342 343 344 336 333 336 342 346 342 337
341 343 346 353 354 355 353 353 353 356 355 355 354 353 354 355 352 352 350 350 353 351 351 346 346 345 345 324 329 331 340 340 341 341 341 342 334 331 329 332 330 340 338
336 342 344 346 353 357 357 354 355 359 357 357 355 353 355 353 355 353 350 351 352 353 352 350 347 345 344 321 321 326 331 339 339 340 340 338 335 336 338 328 328 329 329
344 341 341 346 347 352 358 358 357 361 358 358 354 354 354 352 353 353 352 352 353 350 350 349 347 346 342 320 317 321 328 338 338 337 338 340 339 338 337 339 337 336 337
346 348 342 343 348 346 355 358 358 357 356 356 354 353 353 352 352 352 355 354 351 349 349 349 346 345 343 317 315 318 328 334 339 337 337 336 337 324 324 337 337 336 335
346 349 349 348 346 348 356 360 357 355 354 355 353 353 353 352 352 353 354 354 350 348 346 346 344 334 341 314 313 316 327 332 337 340 339 321 323 318 318 335 336 333 335
343 346 352 349 356 355 361 358 356 355 357 355 354 354 354 354 353 356 354 350 349 347 347 343 344 343 340 334 310 310 324 330 331 333 335 334 314 312 312 311 335 331 330
337 343 344 349 357 359 359 359 357 358 358 356 354 353 353 350 351 353 352 349 347 345 342 342 341 340 344 322 311 309 310 322 330 333 334 328 308 307 307 312 313 310 316
337 340 342 344 349 355 356 353 357 358 357 356 354 353 352 351 350 348 345 341 342 340 340 337 337 338 339 340 312 308 308 311 324 329 318 313 304 304 306 305 306 305 320
334 337 340 343 346 350 352 350 346 340 348 340 339 342 344 344 344 344 342 340 339 339 337 336 336 341 343 342 340 333 330 316 322 324 329 325 319 316 319 317 310 314 318
335 337 337 341 344 347 345 346 342 345 341 342 338 340 341 341 340 342 340 340 339 333 336 336 336 333 332 330 313 314 327 326 323 323 334 331 331 329 327 326 324 319 319
329 332 335 340 342 343 343 344 346 344 341 337 338 337 338 339 340 339 335 312 312 308 305 302 312 326 308 301 299 297 297 297 299 319 322 323 326 328 330 328 328 328 324

GFSMW_sfc_thetae_072.txt.gz
Theta_e
348 352 355 358 359 357 360 359 358 358 355 355 354 354 351 353 356 358 359 356 353 356 355 353 356 354 349 346 354 354 348 351 355 343 346 348 348 351 350 350 355 351 355
348 352 356 356 354 354 357 359 358 359 358 358 358 360 360 357 360 363 359 359 355 351 352 353 351 355 353 354 352 351 349 351 349 346 345 338 343 347 349 353 352 352 353
348 352 353 353 352 353 356 357 358 358 360 361 358 359 358 358 355 356 357 358 356 354 350 350 353 353 351 347 349 350 349 344 345 351 343 335 331 342 349 345 348 349 350
350 354 353 352 352 353 355 358 358 359 362 364 356 355 353 350 354 355 356 356 355 355 352 350 351 352 350 347 345 344 343 344 341 348 347 348 345 334 330 339 338 347 348
346 352 354 354 354 354 353 355 358 360 364 364 363 357 356 354 354 354 355 359 356 354 352 351 352 350 350 348 348 347 348 346 346 344 345 345 345 342 335 329 334 340 340
345 352 356 358 356 354 354 353 356 358 364 362 361 361 358 358 355 352 352 352 354 352 352 350 349 347 346 342 345 347 345 346 348 348 341 338 337 336 335 334 337 336 334
345 350 354 355 356 352 353 354 356 355 360 360 356 359 359 360 355 352 349 352 349 354 350 349 348 347 347 349 346 348 346 347 346 344 342 341 339 341 343 339 338 336 334
345 349 352 353 352 351 354 355 357 357 358 358 360 362 361 354 353 353 356 351 347 350 352 353 355 353 352 351 351 348 346 347 346 348 348 347 350 350 346 342 338 332 330
343 347 352 351 351 352 354 355 356 358 358 358 361 360 360 359 355 358 360 354 354 350 352 353 351 352 354 350 350 348 346 344 344 344 343 346 348 348 346 344 343 335 326
341 345 345 345 349 353 356 357 358 358 358 359 357 359 359 358 358 360 356 356 356 354 355 353 353 352 353 351 350 349 348 346 345 345 344 344 346 349 351 349 347 342 337
339 341 338 346 349 349 352 355 356 358 359 360 357 358 356 356 358 357 356 356 358 356 356 350 354 353 351 351 350 349 347 344 346 347 345 345 348 346 350 349 347 343 340
336 339 340 344 347 347 351 354 355 357 358 360 358 356 356 356 356 356 355 358 356 356 354 353 349 352 350 351 344 343 346 343 343 341 344 344 347 346 347 345 343 343 341
342 340 339 348 348 349 351 353 355 356 357 359 356 354 352 355 354 355 355 355 354 353 351 353 351 348 349 345 346 346 344 344 344 341 341 344 344 343 345 345 344 343 337
342 342 348 353 356 355 352 352 353 354 356 356 356 355 354 354 353 354 355 353 354 352 346 347 347 346 348 348 347 344 343 344 343 341 342 344 344 344 345 346 344 341 337
340 348 352 355 357 356 355 353 354 354 357 357 355 356 354 355 352 353 354 354 352 350 349 346 346 347 344 336 342 343 342 342 342 341 343 339 336 334 334 340 342 340 334
340 346 353 355 356 356 355 354 355 356 359 357 356 358 358 352 350 351 353 353 352 354 354 350 345 347 349 326 331 333 335 339 340 336 339 337 333 331 332 333 331 340 335
338 342 346 352 361 359 358 356 357 361 360 358 356 357 357 356 354 353 353 351 351 354 353 352 347 345 347 323 322 326 329 331 336 337 340 338 337 338 335 329 330 330 330
343 345 343 348 356 357 361 360 359 360 359 358 354 356 356 352 352 351 352 353 354 353 352 351 350 348 334 320 320 321 330 326 334 335 339 338 338 335 338 337 336 335 335
344 349 349 347 352 353 359 360 357 355 355 357 357 353 355 353 351 351 352 353 354 352 350 351 349 349 338 319 317 323 329 326 330 333 332 336 336 325 325 335 335 334 330
343 344 349 352 354 361 358 354 357 355 353 356 354 354 356 354 352 352 353 355 353 350 348 348 349 338 342 315 313 322 329 330 329 331 334 324 328 318 319 329 332 331 333
339 342 344 348 354 358 360 358 359 353 359 358 353 350 354 354 353 353 354 353 351 348 349 346 347 346 342 327 311 311 331 330 331 329 328 331 316 314 312 312 331 323 321
336 339 342 346 350 353 355 352 350 352 354 352 350 346 352 351 351 352 351 351 349 348 345 345 344 343 342 322 310 309 312 323 332 334 327 322 309 310 310 314 314 311 316
334 337 337 340 347 352 354 352 343 335 334 324 323 343 348 351 353 351 349 347 348 344 342 340 338 342 344 335 311 307 308 311 324 332 323 316 307 306 307 308 309 307 321
332 334 336 339 341 348 351 347 338 339 328 323 322 340 343 347 349 344 347 343 340 340 343 341 337 340 343 342 332 328 322 313 320 325 326 323 317 314 318 318 312 316 319
326 326 327 330 336 340 348 344 345 339 330 332 335 338 341 339 339 343 343 342 326 335 340 341 337 336 330 323 312 323 329 325 314 321 335 333 328 328 327 326 325 317 317
324 322 322 322 325 332 332 335 344 344 339 338 336 337 338 338 339 339 333 318 317 307 303 302 320 318 308 299 299 299 299 299 301 325 326 324 325 324 325 325 325 325 321

GFSMW_sfc_thetae_075.txt.gz
Theta_e
346 349 352 355 353 352 349 345 348 348 349 347 345 345 344 347 348 349 351 349 348 350 349 345 344 344 341 339 341 343 342 341 342 337 337 340 345 340 344 343 345 346 351
344 347 351 352 351 350 349 346 349 346 344 346 347 347 346 346 346 350 350 350 350 348 349 347 345 348 344 342 342 342 339 341 342 334 333 330 331 339 343 344 344 344 349
342 346 349 347 347 348 350 348 349 348 347 350 349 345 344 345 344 344 347 349 350 349 348 349 346 347 347 343 342 340 339 335 338 340 333 326 322 329 338 336 335 342 346
345 346 346 344 345 347 351 349 350 348 348 352 344 342 339 337 342 343 347 347 349 347 347 347 347 345 344 341 341 343 340 338 334 337 342 338 335 325 323 332 332 342 342
345 345 344 345 347 349 349 350 349 348 350 351 346 343 341 341 342 344 344 345 344 346 347 344 345 346 346 344 344 342 340 339 336 336 338 339 338 335 328 323 328 338 336
347 346 346 347 346 348 349 350 348 348 352 352 347 346 341 340 341 340 340 343 344 344 344 343 341 344 345 343 342 343 342 342 341 341 339 336 332 331 331 329 330 331 332
347 346 344 344 346 346 346 347 348 345 350 351 348 346 344 343 339 340 339 340 340 342 342 343 339 337 337 338 341 342 343 341 339 339 339 340 338 338 335 334 331 330 332
346 347 347 346 347 346 345 347 346 344 349 350 348 347 346 345 344 340 341 342 340 341 345 344 341 341 340 343 343 341 343 343 342 343 339 340 340 340 336 334 332 329 329
344 347 349 349 346 345 346 347 346 346 347 348 347 348 347 346 343 343 345 344 342 344 346 346 347 345 346 346 343 340 339 339 339 340 340 340 341 343 341 340 337 332 324
345 346 347 347 346 345 346 350 350 349 349 348 350 350 350 348 345 345 342 343 342 342 343 343 345 344 343 344 342 340 340 337 337 339 340 341 342 342 341 340 338 337 330
340 345 345 345 345 347 347 349 349 349 348 349 351 350 349 348 347 347 347 343 341 340 339 339 341 342 341 341 339 339 339 339 338 340 340 339 341 340 339 339 339 337 335
339 340 339 342 345 345 346 349 349 351 350 351 350 350 349 347 347 345 343 342 341 341 340 339 339 340 341 341 341 339 338 338 337 336 337 336 342 337 336 337 336 337 336
331 332 339 341 342 343 345 348 349 350 351 349 349 348 346 346 346 345 345 343 342 340 341 339 338 338 338 338 339 337 333 336 335 337 336 335 336 334 335 336 335 335 334
332 331 335 339 340 342 345 347 349 350 351 349 348 346 345 346 346 345 344 343 341 341 340 340 341 341 339 339 338 337 331 332 334 336 333 337 336 333 334 336 334 332 331
335 337 340 340 345 343 344 346 347 350 350 349 347 347 346 346 345 344 344 342 342 342 343 342 340 338 337 332 336 335 331 330 333 334 336 333 333 334 332 333 335 335 328
338 343 346 345 345 345 344 346 346 346 350 349 348 349 347 347 345 344 343 341 340 340 338 337 337 335 335 326 328 329 330 329 332 330 332 330 332 331 331 331 333 333 328
341 339 338 340 347 346 345 345 346 348 350 349 349 350 347 345 343 343 344 341 338 339 338 338 337 336 330 322 322 326 325 325 330 331 332 332 335 329 327 329 330 331 332
339 340 341 342 339 342 349 348 352 350 350 349 349 349 349 344 345 343 343 340 339 339 340 338 337 335 327 320 319 323 321 324 330 330 331 330 330 329 329 326 328 329 332
339 339 340 343 347 350 353 351 349 351 351 351 349 350 348 347 343 341 340 341 341 340 339 339 338 336 325 318 317 320 321 323 326 331 329 331 327 324 323 330 328 325 323
334 337 338 338 340 343 347 348 345 347 347 352 351 351 349 346 343 341 342 342 342 340 339 337 337 333 329 314 314 320 322 321 324 326 329 326 325 318 318 326 326 325 325
330 332 332 336 338 341 344 344 343 340 343 346 338 328 325 326 340 342 342 341 341 338 336 337 335 334 331 322 310 312 323 322 323 324 322 327 316 314 313 317 324 320 317
328 329 329 331 336 340 342 340 339 334 334 330 327 325 323 329 328 328 336 339 336 335 336 334 336 335 331 323 310 309 312 323 325 322 321 318 310 310 311 313 315 311 313
321 323 323 325 329 334 334 337 332 332 327 326 322 325 323 328 326 325 327 337 338 336 334 333 331 332 330 321 312 309 308 312 321 324 320 310 307 307 308 310 310 307 312
320 321 322 320 321 327 328 339 334 328 323 319 319 322 325 330 322 324 330 336 335 333 332 332 329 333 333 322 317 316 312 314 316 318 317 316 314 311 314 314 310 312 312
319 318 317 319 320 321 321 324 330 326 322 321 320 321 323 324 334 333 331 333 325 327 330 330 330 331 328 323 315 317 322 320 317 319 324 317 316 315 316 319 317 313 311
317 316 316 316 317 319 319 321 323 326 333 329 327 327 326 332 332 326 323 312 315 309 308 312 317 313 308 299 299 299 300 301 303 317 320 318 321 323 323 323 324 324 319

GFSMW_sfc_thetae_078.txt.gz
Theta_e
342 346 348 352 351 350 348 346 345 344 345 341 341 340 341 343 344 346 348 347 347 347 348 344 344 343 339 339 340 340 339 339 339 335 334 336 340 340 340 342 343 344 348
342 346 348 349 349 347 346 345 346 345 345 344 343 344 343 343 345 346 347 348 347 347 345 346 344 343 340 337 337 340 337 337 338 332 331 327 330 335 341 339 344 342 344
340 344 346 345 347 344 343 345 346 345 345 344 344 342 341 341 342 343 344 347 349 348 346 346 345 344 343 340 339 339 337 335 335 339 332 325 322 326 334 331 337 341 341
343 345 346 345 346 346 346 345 346 344 343 344 344 339 335 332 338 340 342 346 348 347 346 346 345 344 345 340 341 342 339 336 331 335 338 334 330 324 323 332 329 339 339
343 344 345 345 347 349 348 346 347 345 344 346 345 339 335 338 339 340 341 342 342 344 345 344 344 344 344 342 341 340 337 337 335 334 333 334 334 332 329 325 326 333 332
343 346 346 344 343 348 349 347 346 345 344 348 343 340 339 336 337 338 338 340 340 341 343 342 342 344 344 343 342 341 340 339 339 338 336 336 332 331 330 328 328 329 332
343 343 341 342 342 344 346 347 346 343 345 348 346 343 341 338 337 337 336 337 340 339 340 340 338 339 341 341 340 339 340 339 336 337 339 339 337 337 335 332 330 329 331
343 341 342 342 343 344 346 346 344 343 345 348 345 344 342 341 338 338 336 336 337 338 341 341 339 337 336 336 338 336 338 341 339 338 338 338 338 338 336 333 329 328 328
342 341 342 342 344 343 344 345 344 342 344 348 346 343 343 342 340 338 337 339 339 341 342 342 339 338 338 338 340 338 337 337 337 339 340 339 340 341 340 337 334 329 324
342 342 343 343 344 344 343 345 344 342 343 346 346 346 344 343 342 340 339 339 340 339 341 342 342 342 342 342 340 337 337 336 334 335 334 334 339 340 340 339 338 337 330
343 344 345 345 345 345 344 344 344 343 343 345 345 346 345 344 342 341 341 341 338 339 339 339 340 341 340 340 338 337 337 336 335 336 337 336 337 339 339 340 337 337 333
344 346 347 346 343 342 344 345 346 346 346 345 346 346 346 346 342 341 343 341 338 338 337 337 339 339 339 338 336 335 338 335 334 335 336 335 338 335 335 336 335 336 335
335 330 340 343 342 342 344 346 346 347 347 346 346 346 345 344 343 342 342 339 338 337 338 337 336 336 338 337 337 337 333 333 335 333 332 334 334 333 333 334 333 333 334
335 335 333 339 341 342 343 346 346 348 348 346 346 345 344 344 344 343 342 340 339 337 337 336 336 335 336 336 335 335 330 330 332 333 331 334 334 333 333 333 333 332 330
325 330 334 336 340 340 343 347 347 346 349 347 346 345 345 344 343 343 341 340 339 339 338 338 339 339 339 334 337 334 328 328 328 331 335 333 333 333 331 332 333 331 328
333 332 332 333 329 336 340 345 346 346 348 346 346 346 345 344 343 341 340 340 338 338 338 339 339 333 334 325 328 331 330 329 330 328 330 329 333 330 330 331 333 331 327
329 327 331 330 331 324 330 342 344 348 347 347 346 346 346 344 343 343 341 339 336 336 335 334 334 333 331 322 322 326 326 327 327 330 329 328 330 328 328 327 329 329 328
334 335 332 333 338 340 345 347 347 346 346 346 347 347 348 342 340 339 335 339 336 336 334 334 335 333 331 319 318 322 320 324 330 329 330 331 328 326 327 326 326 328 331
329 332 333 337 336 337 342 345 343 346 346 347 346 347 342 329 330 329 327 330 334 335 336 336 335 333 329 316 316 320 320 321 327 330 331 330 328 324 322 328 324 322 322
327 327 329 332 332 335 338 341 339 336 335 339 345 338 335 332 325 320 324 326 325 324 338 337 336 330 328 313 313 319 320 318 321 323 325 324 322 317 319 327 323 320 322
321 323 323 325 327 331 332 335 334 331 332 333 331 329 333 333 326 325 326 324 324 324 336 335 334 334 329 319 310 312 321 320 320 322 324 324 315 311 312 316 324 322 321
320 322 321 321 324 327 328 328 332 330 329 326 325 325 328 331 329 326 326 321 324 323 334 333 333 333 330 318 309 308 315 320 322 321 321 320 311 307 307 312 310 308 313
318 319 319 318 321 323 324 325 331 330 324 321 320 319 323 327 327 325 324 323 322 330 334 333 331 330 329 323 310 307 308 313 321 323 317 310 305 307 309 311 309 308 312
317 317 315 316 317 320 321 321 324 330 321 319 317 319 320 321 320 323 323 322 323 324 331 331 330 330 330 324 318 316 312 313 317 317 317 313 311 311 313 313 310 310 310
315 315 314 314 315 319 318 319 321 324 326 319 318 320 319 325 321 321 319 322 328 331 332 333 332 331 329 326 316 315 318 319 315 316 319 315 313 314 313 315 316 313 310
314 313 312 313 315 316 317 318 319 320 320 326 327 324 327 325 328 324 321 309 306 308 308 310 322 323 314 308 308 301 302 302 304 320 321 320 321 320 321 323 323 322 319

GFSMW_sfc_thetae_081.txt.gz
Theta_e
337 342 346 349 349 349 347 346 345 342 341 339 339 337 339 340 340 343 344 345 344 345 346 344 344 342 339 340 340 339 339 338 338 334 333 334 338 339 339 340 341 343 346
336 340 344 347 347 347 346 345 345 342 342 341 339 340 340 341 342 343 345 346 345 345 345 344 343 342 339 337 338 338 336 335 336 331 328 325 329 334 338 338 341 340 343
335 338 342 346 347 346 345 344 344 343 342 341 341 340 340 339 339 340 342 344 346 345 344 344 343 343 341 338 336 336 337 333 334 334 330 322 322 324 332 330 336 339 340
338 340 342 344 346 346 347 345 344 343 343 342 341 337 335 334 336 339 340 343 345 346 345 344 344 343 343 341 339 339 336 333 331 333 336 332 329 323 323 329 329 338 336
338 340 342 344 346 347 344 345 344 343 342 342 342 339 333 332 335 337 338 337 341 344 344 342 342 342 341 341 341 340 337 337 334 332 332 331 332 329 324 321 325 335 334
339 341 344 345 345 346 343 344 343 342 341 342 342 340 336 334 334 335 336 337 338 339 342 341 340 341 341 342 342 341 338 337 335 334 333 332 331 331 327 325 326 327 331
339 341 343 343 344 345 345 344 343 341 342 342 342 341 338 335 335 335 335 334 336 337 338 337 337 339 340 341 340 339 339 338 337 338 338 338 336 334 334 330 330 329 331
339 342 343 342 342 345 345 345 343 342 342 343 343 341 339 337 336 336 335 335 337 338 339 339 337 338 339 338 338 335 336 336 335 334 337 338 338 338 337 334 331 328 329
339 342 343 342 342 344 344 344 343 342 341 343 343 341 340 338 337 337 336 335 336 339 339 340 338 336 335 333 333 333 334 336 335 336 338 337 339 339 337 336 334 330 324
340 341 342 341 343 343 344 344 343 341 341 344 344 343 341 341 340 339 336 336 339 338 339 340 339 337 337 336 335 335 335 334 333 334 334 336 338 338 340 339 337 335 331
339 340 341 342 343 343 343 343 342 339 339 342 343 343 342 341 341 339 339 338 338 338 337 339 339 339 339 338 336 335 334 333 331 331 331 331 333 336 336 337 337 336 332
339 340 341 340 341 341 339 341 340 340 341 342 342 343 343 342 341 339 339 339 337 336 337 336 337 338 339 337 336 335 337 334 333 332 333 334 336 333 332 334 335 335 333
340 341 343 342 342 340 341 340 341 342 343 343 343 342 342 342 341 340 340 340 336 336 335 334 336 336 336 336 336 335 335 334 333 332 331 333 333 331 331 332 331 329 333
331 331 333 338 339 339 341 342 342 345 344 343 343 343 343 343 342 342 340 339 337 336 335 335 334 335 335 335 335 335 332 330 331 332 332 333 333 331 331 330 332 333 331
329 331 330 329 331 330 331 337 343 343 345 344 343 344 344 344 343 341 340 338 337 336 335 334 334 334 334 336 332 334 330 328 327 329 333 334 334 334 331 329 333 331 328
326 329 330 328 329 329 328 333 337 343 342 343 344 343 343 342 341 339 334 336 335 335 336 335 335 335 335 327 327 331 328 329 328 327 330 329 333 330 330 330 333 332 328
325 327 324 326 327 330 332 335 341 344 342 344 346 345 341 340 333 330 330 328 328 330 332 333 334 332 331 322 323 328 327 326 326 327 328 329 332 329 329 328 329 329 328
331 327 326 325 327 331 338 342 342 344 343 343 344 342 341 333 331 330 329 327 328 327 327 325 330 333 332 320 318 324 323 323 326 327 328 327 328 327 328 329 330 326 328
327 329 331 332 336 336 337 340 341 339 343 342 344 343 338 333 330 329 329 329 326 325 327 326 324 331 333 317 315 319 319 319 324 326 327 329 329 323 321 327 326 324 323
325 326 330 331 330 331 331 335 335 334 332 335 339 342 335 332 328 327 328 328 325 322 324 324 324 326 334 314 312 319 320 317 320 322 322 324 326 318 317 327 325 321 322
321 322 322 322 324 325 326 327 332 330 330 331 331 333 333 331 328 325 323 320 324 326 321 322 323 331 334 320 310 313 320 319 318 321 320 321 315 312 312 315 324 322 322
319 320 319 318 319 323 324 323 326 327 328 324 325 324 327 329 330 325 323 321 320 319 319 322 326 334 332 318 309 309 315 318 320 320 320 320 309 307 309 314 311 310 315
316 317 317 317 319 319 319 318 320 323 327 322 318 318 318 320 325 321 319 320 319 320 323 327 331 332 330 323 309 307 310 313 319 321 316 311 306 305 308 311 309 309 312
313 314 315 314 314 317 317 317 319 321 323 322 318 316 316 317 318 318 321 320 319 320 322 328 329 329 328 324 314 313 313 313 320 316 312 312 311 311 313 313 311 311 310
312 312 313 314 315 316 317 318 318 318 318 322 324 318 319 318 326 321 317 322 321 317 321 324 325 329 328 327 316 316 318 319 317 315 316 316 316 314 313 316 317 315 309
312 310 310 310 310 310 311 313 316 315 315 316 318 319 322 327 327 324 313 304 303 303 307 304 314 325 317 307 306 305 303 303 304 317 321 319 316 315 316 317 320 321 319

GFSMW_sfc_thetae_084.txt.gz
Theta_e
336 339 343 346 343 341 340 340 342 343 341 340 340 339 340 341 342 344 347 347 346 345 348 346 345 346 343 344 344 343 341 342 343 340 340 342 343 344 346 347 347 349 351
333 337 342 346 345 344 343 343 344 343 342 342 340 340 341 342 343 344 346 347 347 347 346 347 345 345 342 339 341 341 340 342 340 337 335 333 335 339 343 344 345 347 349
332 335 341 344 346 345 345 345 345 343 342 342 342 340 342 342 342 343 344 346 348 347 347 345 346 344 343 340 338 339 340 337 338 339 336 328 329 332 338 337 342 345 346
333 336 339 342 345 346 347 346 345 343 342 341 342 339 338 337 340 342 344 346 348 347 347 346 346 345 344 342 340 339 339 339 337 338 340 338 336 331 330 337 336 342 343
333 335 338 342 346 347 347 346 344 343 343 342 342 340 337 338 339 341 342 343 343 346 347 345 346 345 343 344 341 340 338 340 337 338 337 337 337 334 331 329 333 335 341
333 337 340 343 345 347 347 345 343 342 342 342 341 341 338 336 336 338 339 340 342 343 345 344 343 344 343 342 341 341 340 338 337 338 339 338 335 333 333 329 331 332 336
333 336 339 341 344 344 344 344 343 341 341 342 342 341 340 338 337 337 339 338 339 341 342 343 342 343 343 344 342 342 340 339 337 337 336 337 338 340 337 334 334 333 334
333 337 340 341 342 343 343 344 342 342 341 342 342 342 342 341 338 338 339 339 340 342 343 344 341 342 343 343 343 341 341 341 341 339 338 338 340 339 337 335 332 329 331
333 337 341 342 343 344 343 343 342 342 342 342 342 342 342 341 339 339 339 339 340 341 343 343 342 341 341 341 340 338 338 340 340 340 340 340 339 340 340 338 336 333 325
335 338 341 342 344 345 346 345 344 342 342 343 344 343 343 342 341 340 339 339 340 342 343 342 342 340 339 337 336 336 338 337 339 340 339 340 341 340 341 338 337 335 332
336 340 341 342 343 344 344 343 343 340 341 344 344 344 343 343 342 341 341 340 340 342 341 342 342 341 339 340 339 339 340 338 338 337 336 336 337 338 338 339 338 336 335
337 340 340 341 340 341 342 343 343 341 342 343 344 344 345 344 343 342 342 342 341 341 341 341 341 341 342 342 341 339 341 338 337 337 337 336 339 339 339 336 336 335 334
337 339 339 339 340 340 340 340 343 342 343 343 344 345 345 344 343 342 343 342 342 340 339 340 340 340 340 341 341 340 339 338 338 338 337 338 338 338 337 337 336 335 336
331 331 332 334 337 338 340 341 341 343 343 343 342 342 344 345 344 343 343 343 342 340 339 339 339 340 340 341 340 340 339 338 336 337 337 337 338 339 338 337 337 335 334
328 328 329 330 328 328 333 336 340 343 344 341 341 341 343 345 344 343 341 340 339 339 339 338 339 338 338 337 339 338 338 336 334 335 337 336 337 335 336 337 337 336 333
322 324 327 329 330 330 331 335 337 334 334 332 332 331 340 343 342 339 338 338 339 338 338 337 337 337 337 328 328 335 336 335 333 333 335 337 336 334 330 331 332 336 333
325 325 326 327 327 330 330 335 338 335 332 329 329 331 332 339 338 337 336 337 336 336 337 338 337 336 337 325 323 328 335 333 333 334 335 334 334 331 334 329 330 329 328
325 327 327 328 334 335 336 339 343 332 331 327 327 330 332 338 335 334 335 336 336 334 335 336 334 337 337 323 319 324 334 332 332 332 334 334 333 332 333 336 335 333 332
324 326 328 329 329 327 329 336 337 338 335 328 326 330 339 335 333 332 331 333 334 334 335 333 331 332 334 319 316 322 328 327 330 332 333 333 333 323 322 333 334 333 333
322 322 323 323 322 323 325 328 330 330 329 332 333 335 342 335 333 333 332 334 332 331 330 330 327 322 330 316 313 320 328 326 327 330 331 323 330 316 315 333 331 329 329
319 321 319 318 320 323 324 324 324 322 326 331 329 330 335 335 334 330 328 325 328 328 325 325 325 326 327 330 311 315 328 327 325 328 328 330 315 309 308 316 332 329 329
317 319 318 318 319 319 318 317 317 321 324 328 326 324 324 329 331 328 328 326 325 324 325 323 323 325 328 319 310 311 317 321 326 327 329 326 308 306 306 317 313 310 320
316 317 316 315 316 317 317 315 316 318 321 325 325 322 321 322 323 325 325 324 323 321 322 322 322 324 331 331 311 311 314 315 325 328 322 312 303 304 309 307 307 311 323
313 315 315 315 315 316 317 318 318 318 317 318 321 324 321 320 324 322 323 324 322 321 322 324 326 329 331 325 319 318 319 316 321 316 317 314 314 313 315 314 314 320 320
313 313 313 313 312 313 314 316 317 317 316 316 317 319 321 324 325 325 317 319 323 317 323 324 327 329 326 323 315 315 321 324 319 316 318 319 319 319 320 321 320 320 318
312 311 311 311 312 313 314 315 316 317 316 316 316 316 318 320 324 325 318 303 301 298 297 300 314 327 312 306 304 303 304 304 306 321 321 319 322 322 321 322 322 322 319

GFSMW_sfc_thetae_090.txt.gz
Theta_e
347 348 349 351 353 355 355 355 353 359 357 354 352 352 352 354 354 358 360 360 360 361 359 355 355 358 354 354 360 361 356 353 359 354 349 352 353 354 354 355 355 356 357
344 346 349 350 352 354 356 355 353 355 357 355 355 353 353 351 352 353 358 361 360 362 360 359 357 352 352 355 352 357 353 351 361 345 344 340 343 348 352 352 351 354 355
343 346 348 350 352 353 355 355 354 355 357 358 356 355 354 353 351 351 352 357 360 361 361 360 359 358 359 359 355 353 350 344 349 353 349 339 334 338 349 352 351 353 353
343 347 348 351 352 353 356 358 357 357 358 359 358 357 349 346 349 351 352 354 358 360 360 361 359 358 353 357 357 361 354 352 347 349 350 352 348 341 336 345 349 353 354
340 345 348 351 354 355 356 357 359 359 361 361 363 355 353 349 351 351 356 357 359 360 359 360 359 359 357 361 360 359 357 355 348 341 347 345 349 349 339 333 341 348 349
330 342 348 352 354 356 356 358 360 362 363 361 361 359 356 353 349 351 350 351 352 363 359 357 357 358 357 356 355 358 356 354 350 346 342 343 344 342 343 340 340 339 346
331 330 343 348 355 354 356 357 360 361 361 361 360 359 357 357 355 354 351 353 349 351 358 359 358 354 356 355 356 357 355 354 350 348 343 344 343 341 348 346 341 341 345
339 338 336 346 350 353 356 357 360 361 361 361 361 362 359 353 352 355 350 349 349 352 357 357 356 356 355 353 355 353 348 349 344 343 343 344 341 344 348 346 344 339 341
342 341 343 340 348 352 356 357 360 362 361 361 362 360 359 357 354 358 358 352 357 353 355 356 356 356 355 354 354 350 350 352 348 345 345 344 343 344 343 343 343 339 331
344 345 340 335 346 351 356 359 360 361 361 361 361 359 358 356 355 356 357 356 357 357 354 355 356 356 354 354 354 349 350 350 353 351 349 350 351 352 351 351 351 345 340
346 348 345 344 347 350 355 358 358 360 361 361 361 359 356 356 355 355 359 357 358 359 357 355 355 356 355 354 353 351 347 347 347 349 349 349 351 354 355 354 350 348 346
347 346 349 347 348 350 353 354 358 359 360 361 361 358 356 355 354 356 358 358 358 359 358 354 356 355 355 354 351 349 347 346 346 347 347 347 346 349 349 345 353 352 347
336 337 339 345 346 348 350 351 342 329 334 355 359 355 353 353 353 356 358 358 358 358 357 353 353 353 353 353 353 352 351 350 349 349 349 349 348 348 349 347 349 348 349
331 332 331 329 328 328 329 329 332 336 332 336 352 352 353 354 353 357 359 358 359 358 357 355 354 353 353 353 353 352 351 350 350 350 349 347 347 348 349 348 349 349 347
335 336 331 329 330 334 332 334 335 334 333 331 331 354 355 356 356 357 358 359 359 358 359 355 356 354 352 350 352 351 350 350 349 349 350 349 347 342 343 343 349 348 345
330 333 334 334 335 333 332 334 335 331 333 341 345 349 353 355 356 358 358 359 357 358 357 356 354 352 349 333 333 342 349 349 349 347 349 349 341 340 334 335 335 341 345
329 330 332 334 335 337 335 336 335 334 336 339 345 346 349 353 355 356 353 351 352 355 356 356 355 352 353 330 327 331 347 347 347 348 348 346 343 342 345 332 330 332 331
325 326 328 330 330 336 341 340 339 337 337 336 338 341 342 347 348 346 348 349 349 350 351 351 355 354 353 327 322 326 348 348 349 349 348 349 348 346 344 345 343 343 343
325 329 332 332 331 331 334 335 338 337 334 335 336 337 340 342 345 341 344 345 345 346 351 352 354 353 352 325 320 328 347 348 348 349 349 348 348 333 326 343 342 341 342
325 328 330 330 332 331 334 333 332 331 332 335 338 340 342 344 343 345 343 345 346 347 348 350 346 337 349 325 315 326 345 348 349 351 352 329 340 319 319 342 344 338 340
328 328 327 326 325 330 331 328 329 327 330 333 337 339 342 342 345 347 347 344 343 341 340 340 343 345 343 343 313 313 339 340 344 346 345 350 321 312 312 318 343 343 344
326 327 326 326 327 328 325 327 325 328 329 329 332 334 338 340 339 340 341 340 338 334 333 333 333 336 340 325 319 312 313 329 339 342 345 345 314 308 308 318 316 317 325
325 326 326 326 327 327 329 326 326 328 330 330 330 331 332 334 338 338 338 336 338 334 335 336 337 340 343 345 316 312 311 312 327 340 336 322 309 306 310 312 311 313 335
324 326 326 325 325 327 327 327 327 328 329 328 329 328 328 328 331 329 333 335 334 333 331 332 333 333 334 336 338 336 331 315 323 326 335 323 324 322 329 324 324 336 336
325 325 324 324 325 327 327 327 327 328 325 325 329 329 330 327 327 330 332 330 331 327 329 331 333 331 332 333 322 327 334 333 327 330 328 324 327 332 334 334 333 334 334
324 323 324 326 326 325 326 327 327 327 325 323 323 325 327 328 329 328 326 311 306 301 299 298 303 326 313 305 303 302 304 306 307 327 324 323 327 331 330 329 330 332 329

GFSMW_sfc_thetae_093.txt.gz
Theta_e
345 349 347 348 350 354 361 362 362 367 360 355 353 352 348 354 354 355 362 362 362 361 361 355 358 364 356 358 359 360 357 354 360 358 350 355 355 354 351 352 354 355 356
341 348 348 349 353 354 361 361 363 368 363 357 358 354 355 351 356 358 360 361 359 363 360 359 356 357 354 356 356 356 354 353 360 352 351 348 343 348 352 353 351 355 356
340 347 349 351 349 355 360 362 363 368 365 363 360 360 359 357 350 352 355 359 359 362 363 362 363 364 358 351 360 354 353 346 358 356 351 343 334 343 346 354 351 356 350
341 348 349 353 349 351 358 365 365 366 367 370 360 361 350 347 348 351 352 355 360 359 361 364 362 363 366 359 355 362 358 353 346 359 352 353 350 344 341 346 350 353 355
338 344 348 351 351 352 355 361 365 366 366 367 364 359 357 350 350 350 362 362 364 361 358 361 361 360 359 357 361 359 356 358 356 355 353 351 347 354 341 342 341 348 351
336 342 349 354 356 354 355 356 365 366 368 367 368 365 362 359 349 352 350 351 352 355 360 359 361 359 359 359 357 357 356 356 357 357 353 348 343 342 344 339 341 340 347
327 329 344 349 358 355 356 357 365 365 366 365 364 368 368 364 364 360 351 353 348 350 359 360 357 363 359 360 360 360 355 357 353 354 353 349 349 350 351 342 347 346 344
334 335 335 344 349 355 359 359 364 366 366 366 367 369 369 356 354 359 352 349 348 354 360 360 358 358 356 355 357 353 355 352 352 351 351 349 352 342 345 343 338 336 343
337 338 339 341 344 350 359 360 365 367 367 367 369 369 367 364 356 363 362 353 362 353 360 357 355 357 357 356 355 351 352 354 353 350 350 347 346 345 342 339 338 339 335
340 342 344 343 340 347 353 360 363 367 364 366 366 367 367 366 364 364 361 362 361 359 358 354 353 355 358 356 356 351 352 351 352 351 350 349 347 347 348 345 346 350 344
345 350 350 347 344 342 350 355 359 361 357 361 366 366 362 361 360 358 361 360 360 362 359 356 355 355 355 355 355 353 350 349 350 351 350 350 352 348 351 352 353 353 350
345 350 352 352 348 347 349 354 346 345 350 354 360 360 361 358 356 355 359 361 360 362 359 357 354 355 355 353 352 350 348 347 347 347 349 348 348 351 353 349 353 351 353
342 341 341 345 346 342 338 336 337 337 341 340 343 343 338 354 355 355 357 359 358 360 357 356 353 353 353 354 352 351 350 349 349 349 351 349 350 352 354 350 353 348 353
337 332 331 332 335 333 334 336 335 335 339 338 337 333 332 333 343 358 359 358 361 357 359 357 354 353 352 352 354 353 352 353 350 351 351 349 347 350 351 351 350 352 348
334 332 332 333 334 335 335 334 336 336 340 342 337 334 335 335 338 354 357 359 359 358 359 358 355 356 352 348 353 350 350 352 351 351 350 350 349 345 345 349 353 353 345
330 334 333 336 335 335 335 337 339 338 338 343 340 335 335 335 335 351 355 357 360 361 360 357 355 355 350 336 336 345 350 351 349 350 349 350 345 342 337 337 337 345 347
330 331 332 331 336 338 338 336 335 337 340 344 344 339 337 335 336 351 354 355 357 362 360 357 356 355 355 330 330 334 349 348 350 349 348 345 344 344 346 334 333 333 333
329 332 334 334 331 335 343 343 339 338 339 339 342 345 345 345 349 350 354 356 360 356 353 355 360 358 356 325 325 329 351 350 350 349 349 350 349 349 346 347 343 342 342
330 331 333 332 331 333 336 341 341 340 338 337 338 339 340 342 345 347 347 350 352 350 350 353 356 358 357 326 321 329 350 349 349 349 350 350 348 338 329 344 345 345 347
331 330 331 332 332 335 336 334 332 333 334 338 340 341 342 343 345 345 341 343 348 348 346 350 355 346 357 325 317 327 346 346 344 353 354 333 342 327 322 345 345 344 342
329 330 330 329 330 332 332 331 329 328 331 334 339 341 342 343 344 344 348 349 348 345 346 348 351 352 349 347 314 315 345 343 343 342 344 346 324 315 314 321 346 343 348
327 328 328 329 331 333 332 330 329 332 333 333 333 334 336 339 340 343 342 343 343 342 340 341 342 346 346 327 319 314 316 333 340 342 344 344 317 312 312 317 323 319 327
327 329 328 328 330 330 330 328 330 332 333 334 333 333 334 333 337 336 338 338 343 341 338 337 337 339 343 346 320 313 313 315 332 339 332 318 310 310 312 313 312 316 339
327 328 327 326 327 329 329 329 330 331 330 330 332 334 333 330 333 333 335 335 334 335 335 333 331 334 338 339 341 337 332 318 325 327 333 329 322 321 330 326 323 338 337
327 327 326 326 327 328 329 329 329 329 327 328 328 331 329 332 331 332 331 331 335 329 329 331 332 332 333 329 308 311 328 335 328 329 335 333 334 333 333 337 334 334 337
327 326 327 327 328 329 329 329 329 328 327 325 324 324 324 326 330 329 332 316 314 308 302 299 307 322 312 304 299 297 297 299 303 325 332 330 331 333 334 332 330 332 330

GFSMW_sfc_thetae_096.txt.gz
Theta_e
338 348 347 347 351 355 357 358 358 362 360 357 354 355 350 353 351 356 361 358 359 360 360 355 358 359 356 354 357 354 354 351 354 350 349 351 356 356 355 355 350 354 356
335 346 347 347 350 354 355 359 358 360 360 358 355 355 356 354 355 361 362 360 357 360 359 358 359 360 357 356 357 356 352 352 352 346 343 338 345 350 350 351 352 353 353
335 346 347 347 349 352 356 356 361 360 360 360 358 356 357 362 354 355 356 358 359 360 360 360 356 359 358 350 354 351 352 347 349 352 340 334 334 341 350 349 349 350 352
338 348 348 347 349 352 359 359 361 362 360 361 356 355 350 347 353 355 356 357 360 360 358 357 358 359 358 355 351 357 351 349 345 350 348 346 346 337 335 348 348 347 347
336 346 348 348 350 353 356 360 359 364 361 360 358 355 352 354 353 356 359 356 358 360 358 357 355 355 358 354 352 354 354 353 349 347 345 347 346 346 340 335 337 347 349
335 346 351 353 351 353 356 358 360 361 363 362 363 358 355 354 351 350 353 353 356 357 359 358 357 357 357 353 354 354 353 352 352 348 347 344 343 340 341 337 339 340 343
334 324 329 350 351 350 353 357 361 358 362 362 360 362 358 357 356 355 353 352 350 354 356 359 358 356 358 355 357 356 355 354 352 350 349 350 347 347 345 342 337 338 342
331 330 337 351 352 351 352 355 359 360 360 361 360 364 361 356 358 361 351 355 352 352 359 358 358 358 357 357 357 355 355 354 351 349 348 347 347 347 345 340 337 332 335
335 334 335 348 354 354 354 354 357 361 361 361 362 359 362 362 355 359 363 355 359 356 359 357 358 359 357 356 357 353 353 353 351 350 351 348 348 349 346 342 337 334 328
339 347 348 352 349 352 356 358 359 362 363 362 363 361 364 363 359 362 356 363 362 359 358 358 357 357 357 358 356 354 353 353 352 350 348 348 347 348 344 340 339 337 333
334 347 350 352 348 348 349 358 360 363 361 362 363 364 363 361 360 357 355 358 365 362 357 359 357 356 356 357 355 354 353 350 350 349 349 348 350 345 344 345 344 341 340
342 341 344 345 344 344 346 358 363 363 363 363 360 358 342 356 352 353 355 357 359 361 357 358 358 357 356 355 354 351 350 349 349 348 347 347 350 348 349 347 345 344 344
334 334 334 335 336 339 340 341 344 342 343 342 341 335 336 333 334 342 349 355 356 357 357 358 356 356 356 354 353 351 352 352 350 349 348 346 347 347 345 346 345 345 346
334 332 333 334 335 335 340 339 340 342 342 339 338 334 334 336 337 342 343 349 351 353 355 355 356 355 355 356 352 352 351 352 351 352 349 346 346 347 345 346 345 345 343
331 333 332 333 335 336 337 337 338 337 341 340 336 335 334 333 334 335 341 347 351 352 354 353 356 355 355 350 353 352 351 351 349 350 350 346 348 349 348 347 345 345 343
329 331 332 335 336 337 337 339 339 339 343 340 338 336 335 333 331 333 340 348 350 352 353 354 353 352 350 338 340 349 350 351 351 350 351 351 345 343 338 340 339 345 343
328 331 332 332 334 336 341 336 337 338 339 340 344 338 338 338 339 340 343 346 350 355 352 351 349 350 353 333 331 338 352 351 351 351 349 348 345 342 345 335 335 335 334
328 332 330 330 333 337 340 338 338 340 341 341 343 344 342 341 340 342 343 345 349 349 346 347 347 352 352 328 326 331 351 351 351 352 351 348 347 349 345 346 339 340 340
328 332 333 332 333 334 336 335 332 339 340 340 341 342 344 343 340 338 341 342 343 341 343 349 354 352 349 324 322 330 349 349 349 350 351 350 347 338 330 344 343 342 341
329 328 329 330 331 333 333 331 330 330 332 334 336 343 344 342 342 344 341 340 342 341 343 343 350 344 350 328 320 326 346 346 346 350 350 333 343 329 322 341 343 340 341
328 329 329 330 333 334 334 332 331 330 334 335 335 334 337 340 344 343 345 342 342 342 346 347 349 349 347 349 317 318 344 346 346 344 344 346 325 319 314 320 345 340 341
326 328 328 330 332 334 333 331 328 333 335 336 334 333 333 334 337 340 342 344 345 343 342 340 338 341 347 330 319 312 315 332 343 344 346 344 315 314 314 316 323 318 325
329 329 327 329 331 333 333 329 332 334 334 334 336 336 332 330 336 337 339 337 342 341 341 339 339 339 343 346 320 314 314 316 329 341 334 316 314 309 311 313 316 315 335
327 327 327 327 329 332 332 332 333 333 332 332 333 337 339 332 335 335 333 332 333 334 333 332 332 335 337 333 326 330 333 318 325 328 335 330 322 321 325 324 319 332 338
328 328 329 328 328 330 330 332 332 332 329 330 330 333 331 332 336 336 334 332 336 330 331 330 331 330 330 329 309 309 319 320 314 313 331 332 333 333 331 331 333 333 335
328 327 326 326 328 328 329 332 333 331 329 327 325 325 324 323 325 334 333 317 315 310 305 301 310 325 313 305 299 297 296 297 299 318 327 328 333 332 333 333 332 332 332

GFSMW_sfc_thetae_099.txt.gz
Theta_e
340 340 341 345 347 350 350 350 349 352 353 351 351 348 346 347 347 351 350 355 353 353 350 349 349 349 348 347 349 345 345 345 345 340 339 341 345 348 347 348 347 346 348
333 337 339 344 345 346 350 350 349 351 352 352 351 348 346 346 348 349 353 354 353 353 352 348 347 347 345 346 347 347 344 345 345 339 336 329 334 341 346 346 347 345 348
331 336 337 340 345 345 347 350 352 352 353 353 350 347 348 345 346 347 348 351 351 351 351 352 349 349 348 347 346 348 345 341 343 345 337 329 327 332 339 344 345 345 345
330 337 336 339 343 345 350 350 351 354 353 352 349 346 346 344 345 344 346 350 349 351 352 352 350 350 349 346 347 347 345 343 338 342 346 341 337 330 328 338 342 344 345
333 337 337 339 343 347 349 351 352 353 354 353 350 347 343 345 344 346 346 349 351 352 352 350 348 346 350 349 347 345 346 345 340 338 338 339 338 338 334 330 333 339 343
333 339 340 341 342 349 349 351 352 352 352 351 350 348 345 343 342 343 346 348 350 352 352 352 349 348 349 347 347 346 346 343 344 343 341 338 336 334 334 333 333 332 338
332 336 337 338 343 347 350 350 351 353 352 351 350 350 347 344 343 341 345 347 348 348 351 351 349 349 349 349 348 345 345 345 344 345 343 343 342 341 338 335 331 331 334
322 323 333 341 341 344 349 352 350 351 354 352 351 354 350 349 349 347 343 347 348 349 351 352 351 349 350 349 348 346 345 346 345 344 344 345 345 344 342 335 331 327 330
322 319 334 333 333 338 346 350 352 350 355 355 353 352 353 350 347 350 344 347 346 349 350 351 351 350 348 348 347 345 345 345 344 344 344 344 344 344 342 339 336 331 325
321 322 332 329 331 342 346 348 353 352 352 355 355 354 355 354 349 350 350 344 348 349 352 351 351 350 349 348 347 343 343 344 344 344 343 341 343 341 339 336 335 335 331
320 327 333 334 329 343 344 344 348 354 353 353 354 354 353 350 334 336 348 350 349 351 351 351 348 349 348 347 346 344 343 342 342 343 343 342 341 340 339 336 336 334 335
320 323 332 334 335 335 337 342 349 354 356 355 347 343 342 334 332 333 334 343 348 348 349 350 348 348 347 346 345 343 344 342 340 340 340 341 345 340 339 338 338 338 337
325 327 331 333 334 334 334 336 339 339 344 342 338 338 335 335 333 335 330 331 335 345 347 347 346 348 348 346 345 344 342 342 341 341 339 338 340 338 338 339 338 340 340
324 330 330 332 333 333 331 333 336 338 337 338 336 335 335 335 336 334 333 331 332 341 346 348 348 348 347 348 346 345 342 342 342 342 341 340 339 337 338 337 337 337 336
317 321 330 332 334 333 334 334 334 336 339 336 334 333 334 334 335 332 333 332 331 339 348 348 348 348 347 348 346 344 343 341 341 342 342 341 342 341 340 338 336 336 334
323 328 329 331 331 333 335 336 335 334 336 336 334 334 332 331 332 332 331 333 342 345 345 345 347 346 350 338 337 344 343 343 342 339 340 341 342 341 338 339 342 339 335
328 329 328 328 330 335 331 330 331 333 333 336 338 333 332 330 329 335 336 336 339 341 341 344 345 344 345 334 329 337 344 344 343 342 342 341 344 339 338 332 336 336 337
328 328 329 329 330 333 331 333 335 334 334 335 336 335 334 333 333 333 334 334 336 339 340 339 340 341 345 333 327 328 341 343 343 344 343 341 338 337 338 336 332 332 331
326 328 330 330 330 329 329 328 330 330 332 331 334 336 336 335 334 332 333 335 337 336 338 341 341 339 340 329 322 326 334 339 340 341 343 343 340 333 329 338 333 332 332
326 325 326 327 329 330 330 329 329 329 328 331 333 333 334 335 334 333 333 335 336 336 339 338 337 335 341 332 317 322 335 338 338 339 341 330 338 327 323 335 336 333 334
324 325 325 324 325 326 324 322 324 324 328 329 330 331 333 332 334 333 336 335 336 336 336 337 338 341 339 338 318 318 337 340 338 339 338 341 323 319 316 321 336 335 335
323 325 322 321 323 325 323 321 321 324 326 328 327 326 326 328 332 330 333 333 335 332 332 334 335 337 339 328 318 314 315 328 338 338 337 330 315 310 309 313 322 320 326
323 324 322 321 322 323 322 319 321 323 323 323 323 325 326 325 328 329 329 330 330 330 330 328 328 332 334 328 315 311 310 313 320 332 329 317 313 312 314 311 313 313 328
321 322 321 320 320 322 323 322 322 322 321 320 320 322 322 324 323 326 327 323 322 324 325 325 324 327 328 323 321 320 321 318 322 323 328 327 322 322 325 325 318 324 331
320 322 321 321 322 323 321 322 322 321 319 319 319 318 317 316 323 326 325 325 325 323 324 322 322 320 321 317 308 308 315 314 311 306 321 324 325 325 322 322 325 326 329
321 321 323 322 320 321 320 320 321 321 319 318 317 317 316 314 315 317 324 318 314 307 306 303 312 318 310 306 298 296 296 297 298 309 315 322 326 327 327 327 325 327 327

GFSMW_sfc_thetae_102.txt.gz
Theta_e
338 340 340 344 344 347 349 350 350 350 350 348 347 345 346 348 346 348 349 351 349 349 348 347 347 347 346 346 346 344 342 342 342 338 337 338 342 343 345 344 343 344 344
337 338 338 342 346 346 347 350 351 351 349 348 349 347 346 345 347 347 348 350 350 348 347 345 344 345 345 343 344 341 340 341 342 337 332 328 332 336 343 345 345 345 345
333 336 336 340 345 345 346 348 350 351 350 349 348 344 342 342 342 342 346 349 351 351 349 347 345 345 344 344 344 344 342 339 340 340 334 327 325 331 335 338 342 343 342
327 336 336 339 342 345 348 348 349 350 350 350 347 347 343 341 344 343 343 347 350 350 351 350 348 347 345 342 344 346 343 340 336 338 342 337 336 330 326 334 338 341 343
329 333 335 340 342 346 347 348 348 349 349 349 347 347 344 343 340 341 340 346 347 348 350 349 348 347 348 347 344 343 342 343 337 336 336 337 335 334 331 328 333 339 341
324 330 334 335 339 343 347 349 347 348 350 349 348 345 344 342 339 341 341 344 346 346 348 349 348 346 347 347 346 345 344 343 342 340 339 337 335 334 331 332 332 332 336
324 324 327 329 331 332 337 347 349 347 349 348 348 346 344 341 341 341 343 343 345 346 347 347 346 346 346 347 345 345 344 342 342 342 340 341 338 337 336 333 331 329 332
324 323 326 325 329 331 332 331 340 347 349 349 348 347 346 344 344 342 345 345 346 347 349 349 348 347 347 346 346 343 344 342 339 339 341 341 341 341 340 337 332 327 327
323 324 326 327 327 329 329 331 335 345 349 349 348 348 347 346 344 343 344 347 347 348 348 350 349 348 347 347 346 342 342 342 340 341 342 343 343 343 342 338 335 333 329
324 327 328 329 328 330 331 332 340 342 350 349 349 348 350 347 347 348 344 346 346 348 348 349 350 348 347 347 345 343 342 342 341 342 340 341 342 342 341 339 336 334 333
324 330 329 332 330 330 330 333 333 338 342 352 350 349 348 339 339 338 335 338 343 346 347 349 348 348 347 347 345 343 342 341 340 341 340 340 339 339 338 336 333 333 333
319 325 333 330 330 334 334 330 332 334 337 345 342 340 336 335 335 333 334 336 336 338 345 346 347 347 347 346 344 343 343 340 338 339 338 338 341 337 337 336 333 332 333
325 328 332 333 333 334 332 333 335 336 344 344 337 335 333 335 334 334 333 335 337 338 337 339 344 345 346 345 345 344 342 341 340 340 338 337 338 336 336 336 336 336 336
319 322 328 329 333 333 332 333 335 337 341 339 336 334 332 331 333 334 335 336 337 335 335 334 343 345 344 344 344 343 340 339 340 340 339 338 337 338 336 336 337 336 336
317 323 325 327 331 333 334 332 333 334 336 335 336 335 334 335 335 333 334 335 332 332 334 332 344 343 343 345 343 343 341 339 338 339 340 339 340 338 336 338 335 334 333
324 327 327 328 331 332 334 336 333 333 334 332 332 332 333 334 333 334 334 334 333 332 333 341 343 340 346 335 333 339 340 340 338 337 338 339 340 338 333 334 335 336 334
327 327 326 327 330 331 331 329 331 331 333 333 332 332 330 329 329 331 331 331 334 338 339 341 340 338 340 330 327 332 342 340 340 339 338 338 342 337 338 333 332 332 332
325 325 327 328 329 331 329 333 332 331 331 332 332 331 330 329 328 330 331 334 335 333 335 337 339 339 340 326 324 327 337 338 339 341 340 339 339 337 337 335 332 334 335
322 325 329 329 329 328 330 330 329 329 328 328 329 332 332 331 330 329 329 330 332 333 334 338 339 338 339 327 321 325 333 334 337 337 338 339 338 331 325 334 330 329 331
323 323 325 326 324 324 325 326 327 325 324 327 328 330 331 332 330 329 329 330 331 332 335 336 336 331 337 322 319 320 334 333 335 336 336 329 334 325 320 333 334 331 332
323 323 323 321 321 321 320 319 319 319 324 325 325 327 325 328 329 329 330 330 330 330 332 333 334 334 334 335 320 314 333 336 336 334 334 335 322 316 314 318 335 334 334
322 322 319 320 320 320 318 316 316 319 321 321 324 323 322 325 328 327 329 329 330 329 329 331 333 335 335 314 317 311 313 321 334 336 337 334 314 313 309 314 317 313 319
321 321 319 318 319 319 318 315 316 318 319 317 317 318 323 323 324 323 323 324 326 327 325 325 325 326 325 321 310 311 313 314 318 327 327 316 313 311 315 311 314 316 326
320 319 318 318 317 318 319 317 318 317 316 315 315 315 319 321 321 323 322 320 322 322 322 320 319 321 323 319 317 317 316 315 316 316 317 320 320 318 325 324 321 323 327
319 320 320 319 317 318 317 317 318 316 315 315 315 314 313 311 312 319 321 321 321 319 319 319 319 317 316 316 306 306 311 310 308 305 312 317 321 324 324 324 324 322 323
318 320 320 318 316 317 315 316 315 316 314 313 314 313 313 313 313 311 312 314 314 306 306 304 310 316 308 303 297 296 295 296 298 308 312 313 318 321 323 322 323 324 323

GFSMW_sfc_thetae_105.txt.gz
Theta_e
336 337 339 344 345 345 345 345 344 345 345 345 345 345 343 346 345 347 349 348 349 349 347 345 344 345 344 343 344 342 340 340 339 336 336 337 340 341 342 343 340 340 343
334 337 338 341 344 344 345 346 346 346 346 346 346 346 346 346 347 347 347 349 349 348 348 346 344 345 345 342 343 342 338 339 340 334 330 328 331 334 339 341 344 343 343
324 335 336 339 342 343 345 346 347 347 347 347 347 342 342 342 342 343 345 347 349 347 348 346 345 344 345 342 342 341 339 334 338 338 333 325 324 327 334 336 340 343 343
329 329 336 337 339 342 345 347 348 348 348 348 346 343 341 340 344 344 346 346 348 348 347 346 345 344 344 342 343 344 341 339 335 335 339 334 332 326 324 333 336 339 340
328 329 333 337 341 344 345 346 349 350 348 346 346 345 341 342 343 339 342 345 347 348 349 347 345 344 344 343 342 342 342 341 336 335 334 336 334 332 329 327 333 336 339
325 328 332 333 332 340 346 346 345 346 349 347 345 344 343 341 338 340 340 342 344 346 347 348 347 346 345 344 343 343 343 342 341 337 334 334 332 332 329 330 330 332 336
323 324 327 328 329 330 332 331 334 339 347 347 346 345 344 342 340 339 340 340 342 342 344 345 345 344 345 346 343 342 343 343 342 340 339 337 336 335 334 331 327 329 332
322 323 326 327 330 331 331 332 331 332 339 344 345 346 346 344 342 341 342 341 343 344 345 345 346 346 345 345 344 344 343 341 340 338 337 339 339 339 337 334 330 330 329
320 323 326 326 327 330 329 330 330 331 335 339 339 346 345 345 343 342 342 343 344 346 346 347 346 346 345 345 344 343 342 341 339 339 339 339 340 341 340 338 336 334 328
321 327 328 327 328 328 328 329 330 329 331 335 340 338 347 345 344 343 341 345 346 346 346 347 347 346 345 345 344 343 341 341 339 341 338 338 338 339 340 341 337 334 333
315 323 328 331 331 332 332 329 330 329 333 334 338 345 338 337 335 335 340 345 345 346 346 346 347 347 345 345 344 343 342 340 339 339 338 337 338 337 337 335 334 332 333
320 321 321 329 330 332 335 335 329 329 333 338 338 335 334 334 333 333 334 336 338 344 345 347 346 346 346 345 344 343 343 340 338 337 337 337 339 335 335 334 332 331 331
320 323 328 329 330 331 333 333 335 334 336 338 336 332 332 329 330 331 335 335 337 337 337 341 344 343 345 345 345 344 342 340 339 338 338 338 336 335 334 334 333 333 333
316 316 323 324 329 331 332 331 335 336 341 337 333 331 331 328 329 330 333 335 339 339 339 338 339 341 343 344 343 343 341 340 340 339 338 338 336 336 335 334 334 334 336
317 320 323 325 330 331 333 332 333 334 336 332 333 330 330 332 332 331 333 336 337 337 336 337 337 340 343 345 343 343 342 340 338 338 338 338 338 338 337 337 334 333 333
324 327 327 327 329 330 332 330 330 329 333 334 332 334 333 330 329 333 334 333 333 330 330 330 334 337 343 334 331 339 341 339 338 336 337 338 338 337 333 334 335 335 332
323 323 326 327 329 330 333 332 331 332 333 332 331 331 331 333 333 333 333 333 333 333 333 331 332 337 340 329 326 331 339 339 338 337 337 338 341 336 337 331 330 330 331
322 325 324 326 327 330 331 332 332 329 330 333 333 330 328 327 328 329 330 331 332 331 333 336 335 333 336 325 324 327 333 336 337 338 338 337 338 336 337 335 333 332 332
323 324 327 327 325 325 329 329 327 329 327 327 327 329 329 328 327 326 327 331 332 332 332 336 336 337 338 320 319 324 332 333 335 337 337 337 336 331 325 335 332 331 330
324 321 325 324 323 323 324 323 323 322 322 324 327 327 328 328 327 327 325 327 332 333 335 333 335 331 337 320 318 324 336 333 333 333 336 327 334 322 320 332 332 330 331
322 323 322 318 318 319 317 316 316 316 319 323 323 322 323 326 326 327 328 329 328 328 328 330 333 334 332 332 316 314 332 334 334 335 334 336 319 315 312 314 333 332 332
321 321 319 318 318 317 315 314 314 315 317 317 317 320 320 322 323 324 325 328 328 327 327 328 329 329 324 315 313 314 314 318 332 334 335 333 316 311 308 311 315 313 317
320 321 318 318 317 317 315 314 314 315 315 314 313 313 320 320 320 320 318 320 323 325 324 322 322 323 324 322 311 308 312 316 322 327 324 315 311 308 312 311 311 310 323
319 319 319 317 317 318 317 314 315 314 314 313 313 313 313 311 312 319 319 318 318 318 321 320 320 321 321 320 320 318 315 313 314 314 314 315 313 313 320 322 318 322 325
318 318 316 316 316 316 315 314 314 313 312 312 312 311 311 310 311 311 314 318 317 317 317 319 319 317 314 315 306 306 310 309 306 304 310 311 314 319 323 326 329 329 327
319 317 316 315 315 315 314 314 313 313 310 310 310 310 309 310 310 308 308 313 309 302 301 301 309 315 307 298 296 295 295 295 296 307 311 313 313 313 317 320 322 324 324

GFSMW_sfc_thetae_108.txt.gz
Theta_e
331 335 341 345 344 344 343 344 343 344 344 343 343 342 341 344 345 347 349 349 350 350 348 347 346 347 346 347 348 347 345 344 345 343 343 344 346 346 347 347 345 345 348
327 329 336 342 343 343 343 343 343 343 343 344 345 344 344 345 346 347 348 349 350 350 349 347 345 346 346 345 346 346 344 343 342 339 338 336 339 341 344 346 347 348 349
325 328 331 338 343 343 343 343 344 344 344 344 345 344 345 344 345 345 346 348 350 350 350 349 347 346 347 344 345 345 344 342 341 342 339 330 332 334 339 342 344 347 348
325 328 329 335 340 343 345 345 345 345 346 346 344 343 341 341 344 345 347 347 350 349 350 349 348 347 346 346 346 347 346 343 339 342 343 340 338 334 333 340 343 346 346
324 325 331 337 340 344 345 346 346 347 347 347 346 344 342 343 344 345 345 346 348 350 349 349 347 346 346 347 346 345 344 344 343 341 341 342 340 338 336 333 340 344 346
323 325 329 332 335 344 345 347 347 347 348 348 346 345 343 342 340 341 342 344 346 348 349 349 348 346 346 346 346 347 346 344 345 342 340 342 338 338 337 334 336 337 342
320 322 324 326 330 334 341 346 347 347 349 347 346 345 345 343 340 341 342 343 344 346 347 349 348 347 347 347 346 345 346 346 344 343 342 343 342 342 340 338 336 335 339
320 322 325 326 328 332 333 334 338 339 347 348 347 347 346 345 342 342 343 343 344 346 348 348 349 349 348 348 348 346 345 345 346 346 343 343 344 343 342 341 336 331 335
317 322 328 327 328 329 331 331 331 333 338 336 340 346 346 346 345 344 343 343 345 347 347 347 348 348 348 347 347 347 345 345 345 345 344 343 344 344 344 343 342 339 332
317 318 326 330 329 329 329 330 330 330 332 337 338 337 341 343 346 345 343 344 344 346 347 347 347 347 347 347 346 346 346 345 344 343 343 343 345 344 344 344 344 342 339
315 320 323 326 332 332 332 333 332 331 329 334 335 338 332 338 339 341 343 344 346 346 347 347 348 347 347 347 346 346 346 343 344 344 343 343 344 344 344 342 342 339 338
320 322 326 329 330 332 334 334 334 332 331 335 334 334 333 333 332 333 334 336 339 345 347 347 347 348 348 347 346 345 346 343 342 342 343 343 343 342 344 342 339 340 339
319 318 319 325 327 330 332 334 335 336 332 336 332 332 331 332 331 330 333 335 338 340 345 347 347 347 347 346 346 346 346 345 344 343 343 343 342 341 342 341 341 340 339
318 318 317 323 326 330 333 333 334 337 335 336 331 330 331 332 332 332 333 336 337 338 339 342 344 344 344 345 345 346 345 345 345 344 344 343 342 343 342 341 341 340 337
317 321 322 325 328 329 333 334 333 332 338 337 332 330 331 330 331 330 331 333 335 338 341 340 341 343 345 345 345 345 344 343 344 342 343 343 343 339 341 341 341 340 336
316 320 326 327 327 330 330 332 331 333 335 333 332 332 331 331 330 330 330 333 337 336 334 335 337 339 341 332 330 338 342 342 343 341 342 344 340 338 332 334 335 340 339
316 321 324 326 328 329 332 331 332 334 333 332 333 333 332 330 330 331 333 333 334 334 333 332 333 336 338 326 327 329 341 340 341 340 341 340 343 339 342 332 331 331 331
318 321 325 325 326 328 329 331 330 329 330 331 333 332 331 332 332 332 332 333 334 333 334 335 334 333 335 325 322 325 336 338 340 341 341 341 343 343 341 342 339 338 339
321 324 324 324 323 324 326 326 326 327 325 325 328 331 332 331 330 328 328 330 332 332 333 335 336 335 336 320 318 326 334 335 334 337 339 341 341 332 325 341 341 340 340
323 322 323 322 321 321 322 322 321 319 319 324 325 327 329 329 330 331 329 331 333 334 335 334 338 332 339 314 314 328 336 333 333 334 335 326 333 323 319 335 339 337 339
322 322 320 319 319 319 319 317 317 316 318 319 323 324 325 327 328 330 331 332 333 333 333 334 335 336 333 324 313 314 334 333 333 333 333 334 321 313 312 315 336 334 340
321 321 319 319 320 319 317 315 315 316 318 318 318 321 323 322 324 325 328 331 331 330 330 331 326 325 325 316 311 312 315 319 329 332 333 332 312 307 308 313 315 314 318
321 321 320 320 320 319 317 316 316 317 317 317 316 316 317 317 321 323 323 324 327 327 326 327 325 324 325 322 310 310 312 314 323 324 318 313 309 307 311 313 312 312 324
320 321 321 319 319 319 317 316 317 317 316 315 315 315 315 316 316 318 323 322 322 322 322 322 323 325 324 321 320 317 317 314 316 314 315 314 311 311 314 316 321 322 326
320 320 319 318 318 319 318 317 317 315 314 314 314 313 314 315 315 315 316 321 323 320 322 322 322 321 320 316 306 309 313 311 307 306 315 317 317 318 319 323 327 330 329
320 319 318 317 318 318 318 317 316 313 312 313 312 312 312 313 315 314 314 309 306 302 300 302 312 315 304 297 297 297 296 296 297 310 313 314 315 316 316 317 318 321 324

GFSMW_sfc_thetae_111.txt.gz
Theta_e
336 338 345 349 350 352 351 351 352 355 354 350 348 348 346 350 352 355 358 359 358 356 357 354 356 357 355 356 357 355 352 346 350 347 346 350 354 353 353 354 353 353 354
334 337 340 345 350 350 352 353 353 354 353 351 351 349 349 348 350 352 354 356 356 357 356 356 355 356 353 356 356 355 351 350 353 344 345 338 343 349 351 352 353 354 354
330 335 339 342 346 349 351 352 354 355 355 355 353 351 350 349 347 348 350 353 356 358 358 358 357 357 356 352 355 355 354 352 353 352 352 341 335 342 347 351 351 353 352
327 333 338 341 341 349 352 353 353 354 353 356 352 351 346 343 346 347 349 351 355 356 357 359 358 357 356 356 354 355 353 356 349 351 350 351 347 341 335 346 349 353 353
325 328 335 340 346 348 351 352 353 354 354 354 354 352 350 348 348 348 354 356 356 357 357 358 358 357 356 356 356 355 354 352 349 353 355 353 352 351 343 337 340 346 350
324 329 333 339 344 349 350 351 353 353 355 354 354 354 353 352 348 351 350 351 353 354 357 358 358 359 358 356 356 356 357 357 354 354 357 352 344 345 345 341 341 341 345
323 327 333 332 338 343 347 350 353 353 354 351 353 355 355 355 353 352 350 352 350 351 357 358 357 357 358 355 355 359 357 355 357 356 349 352 356 358 353 346 340 340 342
324 325 330 334 334 337 337 340 335 341 350 352 353 355 356 351 351 354 351 351 351 352 358 358 357 358 358 357 355 354 358 358 359 355 356 349 354 356 354 344 342 337 338
326 327 330 334 335 337 334 334 337 338 335 337 347 350 350 353 353 352 355 353 357 354 356 356 357 358 358 357 359 357 354 358 358 358 358 358 357 352 356 353 353 347 334
328 328 331 335 337 339 338 337 337 339 338 338 340 338 344 347 356 357 355 354 356 357 356 355 356 357 357 357 358 359 359 355 353 353 353 356 358 356 355 350 349 349 345
327 327 328 333 337 339 341 342 342 341 340 339 340 342 342 345 351 349 354 353 356 357 355 357 356 355 355 356 355 356 355 352 354 353 352 351 354 357 352 350 348 346 346
328 329 329 329 333 336 339 340 343 343 344 344 342 340 342 343 346 351 351 351 353 356 354 354 356 355 355 356 354 352 352 352 351 352 352 351 351 353 355 352 345 345 345
326 327 329 330 332 336 338 340 342 341 344 341 342 344 344 344 343 347 349 350 353 354 353 354 355 355 357 355 355 354 353 353 353 354 352 352 352 350 350 351 348 345 346
324 325 326 331 335 337 338 339 342 342 343 339 341 341 342 342 341 341 340 342 344 346 349 354 353 354 356 357 356 353 355 354 354 354 353 353 352 352 351 350 350 349 345
321 322 323 330 334 334 337 339 340 341 340 336 339 340 342 339 339 340 340 340 340 339 344 345 348 350 350 349 351 352 351 351 351 352 353 353 350 343 347 349 350 350 343
321 323 324 330 331 330 333 335 335 336 337 336 339 339 338 336 335 336 337 337 339 338 341 342 343 344 347 332 331 344 352 352 351 350 350 352 344 343 334 336 337 346 347
320 323 324 326 329 329 330 331 331 335 336 334 336 338 337 336 335 336 337 336 337 339 338 340 340 342 345 328 326 329 347 345 343 344 344 349 348 343 350 334 331 333 333
321 324 324 325 326 327 329 329 329 330 331 331 333 333 334 334 335 334 333 333 334 335 335 337 337 334 336 324 322 326 340 343 340 341 342 344 348 349 349 351 349 348 349
320 321 324 323 323 323 326 325 324 326 327 327 331 334 334 333 334 337 338 337 335 334 333 335 339 338 337 321 318 325 339 337 338 340 341 342 344 331 323 346 347 348 349
321 321 322 322 321 322 324 323 322 322 323 328 329 333 336 335 335 335 338 338 337 338 339 339 339 332 338 322 317 321 339 336 337 337 339 327 335 322 319 338 343 345 345
321 323 324 320 321 322 323 322 322 321 324 328 331 332 334 336 338 339 341 339 337 337 338 338 337 336 336 335 312 313 342 339 334 334 334 338 317 314 311 314 339 341 338
321 322 323 323 323 324 323 322 321 324 326 327 326 327 330 332 333 338 339 340 340 339 338 331 330 328 326 315 314 314 318 323 336 334 336 331 309 307 308 312 315 312 315
320 323 323 324 323 324 323 321 322 325 326 326 326 327 327 327 333 334 334 333 335 334 332 328 329 330 329 323 310 309 311 314 329 330 319 311 307 306 312 309 309 310 328
321 324 323 323 323 324 323 321 323 324 325 324 324 325 326 326 326 327 331 329 328 328 328 329 329 329 328 325 325 324 322 316 322 318 321 316 313 309 315 319 322 327 328
324 326 324 323 324 325 324 322 323 322 322 322 323 323 323 325 325 324 328 331 332 325 328 328 328 327 326 323 309 314 325 324 313 315 323 323 322 324 325 325 326 328 331
321 324 325 323 323 324 324 323 321 321 322 320 320 320 321 322 323 323 325 307 306 302 301 301 314 321 304 299 298 298 298 298 299 321 323 321 320 321 320 320 321 322 323

GFSMW_sfc_thetae_114.txt.gz
Theta_e
343 345 345 352 354 357 357 358 357 359 357 355 352 351 348 351 352 354 358 359 358 358 359 354 362 363 355 354 355 352 351 346 347 345 344 346 349 350 351 354 353 354 355
335 342 348 347 351 355 357 358 358 359 358 356 357 354 353 351 351 355 358 360 360 359 356 356 355 359 359 360 359 356 347 346 345 341 339 334 339 344 347 350 350 351 352
330 336 343 350 348 352 357 358 360 361 360 362 356 354 354 353 350 351 352 357 359 359 359 357 356 359 359 362 360 360 355 344 347 352 338 333 331 338 346 350 351 353 352
329 334 340 348 350 348 356 359 361 361 360 364 358 360 350 348 349 351 351 353 357 357 358 360 360 366 364 365 359 358 359 362 355 361 354 353 349 338 336 347 350 355 356
328 333 336 345 352 351 354 355 358 358 361 361 362 357 356 352 353 351 358 358 360 357 356 360 360 361 363 362 363 363 362 361 359 357 360 355 349 358 345 337 342 348 349
328 331 338 340 348 353 352 352 357 359 360 360 361 362 362 359 353 354 351 350 351 354 358 357 361 363 362 364 363 363 360 358 358 363 358 346 349 350 346 347 345 343 346
329 331 333 337 339 346 350 353 355 356 358 357 358 359 359 362 361 360 353 354 351 352 360 363 363 360 365 363 363 362 363 358 355 358 352 350 359 359 358 348 343 340 343
332 331 334 337 338 339 343 347 353 354 356 356 358 361 361 359 357 356 358 354 353 356 366 364 361 362 361 363 365 362 356 361 357 357 359 354 353 361 351 347 342 338 340
332 332 334 336 339 340 341 342 346 349 353 350 350 351 356 360 359 363 360 354 363 357 361 362 361 362 362 365 365 360 357 360 359 356 360 361 356 360 358 360 359 345 337
330 331 332 334 338 341 344 344 343 343 347 352 353 354 347 355 356 362 359 360 358 364 362 360 360 362 363 363 366 362 360 360 356 354 358 357 353 355 363 353 361 354 349
327 329 331 333 335 337 340 342 345 347 348 346 347 350 351 348 354 354 353 361 363 356 357 363 361 361 361 362 363 361 360 357 356 357 356 355 358 353 359 362 355 354 355
328 329 330 331 333 334 338 340 344 345 348 350 350 349 348 351 350 356 357 360 360 354 357 360 358 362 360 362 360 357 356 354 353 354 356 355 354 358 360 359 357 356 356
327 329 330 331 332 336 339 342 343 343 346 347 349 349 348 348 349 349 353 356 358 359 359 359 359 358 358 359 360 359 356 356 355 355 356 356 356 356 358 356 355 352 353
326 328 329 331 332 335 340 341 342 343 346 347 346 346 347 348 346 348 349 350 352 352 355 357 355 357 358 358 357 357 357 357 357 357 356 355 356 355 356 355 355 356 350
324 326 327 329 331 334 337 338 342 344 344 345 344 345 344 343 345 345 345 344 346 346 346 348 351 354 355 354 356 357 357 357 356 355 354 356 353 345 349 352 353 357 349
325 326 326 326 329 331 334 333 339 340 343 343 343 344 345 341 343 343 343 344 344 344 346 345 345 347 347 337 334 344 359 356 355 356 355 356 347 344 336 336 337 350 355
322 325 323 328 327 329 329 328 332 337 337 336 338 343 342 341 342 341 342 342 341 343 344 344 345 346 349 328 326 331 354 356 356 356 355 353 351 346 353 335 332 335 333
322 322 321 321 324 325 327 328 329 329 334 336 335 338 339 338 339 342 340 340 342 343 341 341 346 346 346 326 321 325 343 352 352 352 354 352 350 350 346 345 344 347 349
322 323 324 322 322 322 326 325 326 325 326 332 332 334 337 335 338 338 340 343 343 340 337 338 340 339 344 321 319 323 336 342 346 347 348 346 340 330 322 338 339 341 349
325 324 323 323 322 323 326 325 323 323 323 328 332 335 338 337 339 341 341 344 344 344 344 343 340 334 344 320 315 321 337 339 342 346 341 330 335 323 321 335 337 337 342
325 324 323 322 323 325 327 324 325 323 326 332 331 334 338 339 341 341 342 343 345 345 342 335 333 333 324 332 313 313 338 343 341 342 336 336 319 314 312 313 335 334 342
321 323 321 321 325 325 325 323 323 328 330 332 332 332 336 336 341 343 343 344 345 343 337 333 329 328 325 312 309 311 315 325 342 338 343 337 311 309 308 311 317 314 319
320 324 322 321 322 327 326 323 324 328 331 331 333 333 333 334 340 340 339 335 340 340 335 333 332 331 331 328 309 309 313 317 329 328 316 313 308 307 312 308 310 310 325
322 325 324 322 322 322 327 326 326 328 329 329 330 332 331 331 334 336 334 331 330 330 330 331 332 332 332 331 332 330 326 316 325 318 325 319 316 313 321 321 321 326 332
324 325 324 325 325 327 326 326 324 327 327 328 328 328 326 328 330 331 331 331 331 321 329 330 330 329 328 323 310 315 327 326 316 321 330 328 328 329 328 331 332 332 333
325 324 325 325 325 326 326 326 324 326 327 326 325 324 326 327 327 325 329 306 305 302 300 300 314 324 305 300 301 300 300 300 301 323 330 329 329 329 329 324 323 328 326

GFSMW_sfc_thetae_117.txt.gz
Theta_e
342 348 348 353 356 358 361 361 360 367 360 357 354 352 349 352 352 353 363 365 360 362 363 352 359 358 355 353 361 353 354 345 349 344 343 347 348 348 347 348 349 355 357
335 341 347 351 352 357 363 363 361 367 360 357 358 354 354 350 352 353 361 361 360 363 362 361 357 361 357 359 362 362 345 346 347 340 339 335 339 343 346 347 348 350 352
332 337 343 348 351 352 360 359 364 366 364 363 360 360 359 357 352 352 354 357 361 363 365 365 360 364 364 354 361 354 350 344 348 350 339 332 329 338 346 351 347 355 348
331 336 339 345 349 349 356 361 359 364 364 367 359 360 351 349 351 352 354 357 363 364 365 365 364 364 357 360 357 360 357 360 354 357 346 351 349 339 336 345 350 354 355
329 333 338 342 348 352 357 360 362 367 366 364 364 358 358 353 354 354 359 359 363 364 359 364 364 364 358 363 364 362 361 357 355 355 358 353 352 354 341 335 343 350 351
329 333 337 340 343 349 352 357 361 365 365 364 363 362 362 360 355 357 354 353 354 359 363 361 364 365 363 365 362 365 364 360 358 355 355 351 349 346 344 342 345 343 348
330 332 335 337 339 340 345 351 358 360 363 361 362 362 361 362 362 363 356 356 352 351 359 362 363 362 367 367 365 366 363 363 358 359 354 356 353 350 349 350 343 341 345
330 332 334 336 338 339 342 345 350 356 361 359 361 363 364 361 362 362 357 358 353 356 362 363 361 364 365 366 366 360 360 363 360 362 360 352 354 353 351 347 343 339 340
330 330 333 335 337 339 342 344 346 350 355 357 360 360 361 361 359 363 363 363 365 355 359 367 364 365 365 366 367 359 361 362 361 361 362 357 351 353 354 352 349 344 341
328 329 331 334 336 337 339 343 346 347 349 350 352 355 359 361 360 360 361 362 363 356 355 354 365 364 365 365 365 361 362 362 357 356 360 361 360 360 355 354 352 352 347
327 328 329 332 333 334 336 338 342 345 347 350 351 350 352 356 358 351 356 360 364 360 348 358 357 363 364 365 363 362 362 361 360 359 359 358 361 354 354 353 353 352 353
327 328 329 330 331 333 335 336 341 343 346 348 356 355 351 352 354 358 359 360 360 362 352 349 349 343 356 363 361 359 358 359 358 358 358 358 354 359 360 359 358 353 356
328 329 330 331 332 334 335 337 339 341 345 348 349 353 354 352 355 355 356 358 357 357 357 354 342 350 357 361 361 360 359 359 359 357 357 358 358 358 359 359 357 354 355
328 328 330 332 333 335 336 336 339 343 345 347 348 347 351 351 351 353 353 353 354 352 355 356 353 350 352 360 360 359 360 359 358 360 359 360 359 360 359 358 359 359 352
326 327 328 329 332 334 335 337 339 342 344 344 346 346 349 350 350 350 350 349 350 350 351 350 352 353 352 356 357 358 357 359 358 359 360 360 357 348 354 355 360 358 352
325 326 326 327 327 330 333 335 335 339 342 341 343 345 348 345 347 346 346 346 346 346 347 347 347 347 347 338 334 346 356 357 358 358 360 359 348 346 337 337 339 351 352
325 324 323 323 326 323 326 326 329 331 337 338 341 342 345 344 345 345 345 345 346 346 345 345 346 345 347 330 329 334 351 353 356 357 359 357 351 349 354 338 335 335 334
324 324 323 323 324 322 324 327 328 328 329 334 337 339 338 340 345 345 345 345 346 346 346 345 347 346 346 327 324 328 350 353 354 355 358 356 356 357 351 355 352 351 350
326 327 328 327 325 322 324 326 327 328 329 327 332 334 334 336 339 339 341 345 343 346 346 346 345 346 347 321 319 330 345 346 349 352 352 353 349 328 325 351 350 347 347
328 327 326 324 323 326 326 328 326 326 326 325 328 329 333 335 339 341 343 345 347 346 347 344 344 334 344 321 315 326 341 342 343 346 345 329 336 323 322 344 340 340 338
326 326 325 321 322 327 325 324 326 324 327 332 333 334 335 334 336 344 345 345 345 344 342 338 336 336 330 332 312 315 339 344 345 341 336 336 319 315 315 320 337 333 334
324 324 323 322 322 325 325 324 323 327 332 333 334 336 337 339 340 341 342 343 339 339 337 332 330 328 326 314 312 311 316 329 337 337 340 333 315 310 310 317 317 314 319
322 324 321 321 320 322 325 326 328 329 333 334 334 335 338 337 340 342 344 337 340 340 335 337 338 333 334 328 310 311 316 319 340 334 320 313 307 308 314 310 312 312 332
323 325 325 322 322 322 321 328 328 330 332 332 332 333 333 333 339 337 336 333 331 334 333 335 335 332 335 334 332 329 328 317 327 321 324 320 319 319 325 324 320 327 331
326 325 325 324 324 327 325 327 327 328 329 329 329 329 327 329 331 332 331 330 323 318 330 329 331 329 325 320 307 315 327 327 317 322 331 330 331 331 332 333 334 334 335
325 325 326 326 322 325 327 327 327 327 329 327 324 325 326 326 326 327 330 306 306 303 300 299 313 322 305 301 300 300 300 301 303 324 329 329 330 329 329 329 329 329 328

GFSMW_sfc_thetae_120.txt.gz
Theta_e
341 346 348 353 359 361 363 361 361 361 360 358 357 357 351 354 355 355 364 361 359 360 360 354 360 357 353 353 350 351 353 349 351 347 345 349 348 348 348 348 347 351 357
335 341 346 349 352 359 363 364 363 365 362 358 359 358 356 354 355 357 359 361 360 360 359 356 356 357 354 361 359 356 348 348 351 343 344 338 341 345 346 347 349 350 355
331 336 342 346 348 355 362 364 362 361 363 362 360 359 359 358 352 352 355 359 360 359 359 357 355 360 358 354 357 358 354 343 346 349 342 335 331 339 343 346 347 350 348
331 335 337 344 346 349 355 365 361 357 361 360 358 357 351 349 351 351 352 357 362 360 360 360 356 358 357 354 351 354 350 346 345 348 344 342 348 338 337 345 352 350 343
329 331 335 339 344 349 361 363 364 364 361 361 357 356 354 351 356 353 355 353 357 358 359 359 360 355 358 356 356 353 351 347 347 347 350 344 348 349 342 336 342 347 342
330 333 336 338 342 343 350 360 363 364 362 361 359 355 353 352 351 353 351 352 354 355 358 359 358 359 356 356 358 358 356 353 351 351 349 345 346 344 343 340 341 341 348
328 332 332 336 339 340 342 346 360 362 363 360 357 358 355 353 352 351 353 351 352 354 355 358 357 357 358 357 357 358 356 357 354 353 351 350 350 353 347 346 342 341 343
329 331 331 334 336 338 344 347 351 358 363 363 360 360 359 356 354 353 353 355 353 354 358 357 356 358 357 359 360 359 357 357 356 354 354 352 352 352 351 346 342 339 341
328 328 329 332 336 339 343 344 352 355 355 356 362 360 360 358 357 356 356 356 355 357 357 359 356 356 357 357 358 357 356 358 357 355 355 353 353 354 353 350 348 343 336
326 328 330 334 336 336 340 341 345 352 355 354 355 356 358 361 359 358 355 357 356 357 357 358 357 356 357 357 356 356 357 356 357 355 355 354 353 354 353 352 352 351 344
325 326 327 331 333 333 334 336 339 342 352 356 355 352 351 356 359 357 356 357 359 357 352 354 354 354 349 352 353 355 355 354 355 356 354 353 355 352 351 352 351 349 348
327 327 329 329 330 333 337 338 340 341 342 349 354 355 357 356 353 354 358 357 356 356 355 349 343 342 337 343 345 349 353 353 353 354 354 352 354 353 352 352 350 349 351
327 329 330 333 333 334 335 336 338 338 342 345 342 350 351 350 351 353 354 357 355 354 352 349 343 341 339 338 337 341 350 352 352 353 354 352 353 351 351 351 348 350 350
328 330 333 334 333 332 332 335 337 340 341 341 342 343 344 348 349 350 352 352 354 354 350 349 344 340 340 339 336 338 344 348 352 353 354 354 353 351 352 352 351 352 350
325 328 329 330 330 328 329 329 334 336 338 339 339 343 346 348 348 348 349 350 351 350 353 352 349 346 340 336 337 340 340 338 350 353 355 355 353 349 351 353 352 352 349
324 326 326 326 325 325 325 325 327 330 331 336 338 341 342 345 346 347 349 348 348 347 349 349 348 346 344 335 332 337 343 339 330 349 353 354 348 346 341 342 344 352 350
325 325 325 325 325 324 325 324 325 328 330 334 336 338 340 342 346 347 346 345 346 350 348 349 349 346 347 334 333 334 339 336 346 350 352 353 353 345 351 336 336 337 337
324 325 325 326 326 326 328 324 328 328 329 330 332 332 333 336 340 341 341 343 345 346 346 347 347 345 345 326 324 330 344 346 348 351 352 352 351 351 348 348 345 345 345
327 328 328 325 325 324 328 325 326 329 328 327 330 331 330 334 332 333 337 339 345 344 343 346 345 346 343 319 320 330 346 345 347 350 352 351 350 335 327 346 345 345 344
329 327 326 324 324 325 326 321 325 327 323 326 327 330 330 330 334 335 340 338 343 341 344 342 344 329 342 317 315 325 342 342 343 349 346 330 338 322 321 342 341 337 337
327 326 325 323 322 323 324 322 323 324 325 327 329 330 331 330 332 334 335 336 336 337 336 335 336 336 326 326 313 314 339 340 343 344 341 338 320 318 318 321 337 333 334
326 325 324 324 325 323 321 322 325 328 326 329 329 330 331 332 333 331 330 332 333 333 334 334 331 329 329 313 314 313 315 327 337 338 341 334 314 313 313 319 318 315 321
328 325 321 324 325 325 324 321 327 327 328 330 331 334 333 333 335 332 333 331 332 332 332 334 335 333 336 330 312 313 317 319 335 336 322 312 308 308 313 311 312 313 331
323 326 325 325 323 328 324 326 325 328 328 329 331 333 333 333 335 333 328 326 324 329 332 333 333 334 332 330 333 331 329 320 325 320 325 322 321 319 323 323 319 329 333
327 327 325 324 325 328 328 330 327 327 326 328 330 333 333 334 333 329 326 326 316 317 325 327 324 326 323 315 304 310 320 320 312 322 328 328 329 328 328 331 334 334 334
325 325 324 323 323 329 329 331 331 327 327 326 328 327 326 327 330 331 328 306 305 301 299 302 317 314 304 300 301 300 299 300 301 325 330 331 332 331 331 329 330 331 330

GFSMW_sfc_thetae_123.txt.gz
Theta_e
338 342 346 354 355 351 351 355 351 355 355 352 350 348 349 347 347 347 355 355 352 354 351 351 350 350 349 348 346 346 343 344 344 341 335 339 339 339 341 342 342 345 349
333 337 341 345 352 353 353 353 353 356 354 353 352 350 351 347 347 347 354 358 356 354 351 350 348 350 349 347 347 344 341 342 341 334 334 328 333 340 341 342 341 340 345
329 334 338 338 342 350 353 354 355 356 354 353 352 351 352 348 346 347 348 354 354 353 352 351 346 349 346 346 347 345 341 334 337 338 331 324 324 329 335 340 341 339 341
329 330 331 334 337 341 350 356 356 358 356 356 351 349 348 346 346 346 347 353 354 354 354 352 349 347 350 345 348 347 345 341 336 338 340 335 335 328 328 336 340 343 341
327 329 330 334 334 341 357 356 354 351 351 353 349 349 347 349 348 346 343 346 353 354 354 353 350 346 350 348 347 344 345 345 339 341 340 336 334 335 332 328 333 340 339
327 328 331 335 333 336 344 353 351 350 352 350 350 346 344 346 345 345 346 346 348 353 353 353 353 349 349 348 349 347 345 345 341 340 342 340 335 336 336 332 333 334 339
326 327 328 329 331 333 335 337 346 352 354 350 350 350 348 346 345 344 346 345 348 348 349 352 352 352 352 350 351 351 349 348 344 343 343 344 342 342 340 335 334 336 337
324 323 327 328 329 331 334 336 335 338 351 352 352 352 352 350 348 348 347 348 348 349 352 350 352 353 352 353 351 351 352 351 350 347 348 346 347 345 343 339 335 331 333
322 324 325 326 326 327 329 332 334 338 340 343 348 351 352 350 349 344 348 348 349 350 349 353 351 351 351 352 352 349 349 351 351 351 350 348 348 348 347 345 341 337 330
321 321 323 326 325 327 330 332 332 331 338 344 344 347 349 351 352 351 348 349 350 349 350 350 352 351 352 352 351 351 351 350 351 352 350 350 348 348 348 347 344 342 339
320 321 323 325 327 330 330 330 331 332 334 335 338 344 343 345 351 351 351 351 351 350 349 350 350 350 350 351 349 350 349 347 348 351 349 349 349 348 347 346 345 343 340
321 322 324 325 326 327 327 327 328 331 334 335 337 337 337 341 343 345 350 351 350 351 350 350 349 342 340 335 333 333 340 346 345 347 348 348 350 348 347 345 344 344 344
319 323 324 325 325 324 324 325 325 326 331 333 335 336 336 337 338 342 344 346 349 348 349 347 346 340 339 336 336 334 332 336 345 346 348 348 347 347 347 347 344 344 344
322 323 322 322 322 322 321 323 324 326 328 330 329 332 335 335 336 338 342 344 343 341 345 343 343 341 337 334 328 329 331 333 340 348 347 349 348 347 347 347 345 344 343
321 321 320 318 319 319 320 322 323 325 326 327 327 330 333 335 337 339 341 342 342 342 343 344 344 341 335 333 330 330 331 333 336 340 335 337 347 346 346 348 347 346 345
321 321 321 320 318 319 319 322 322 324 326 326 329 331 331 333 333 336 340 340 340 340 341 341 342 338 337 332 332 335 334 334 334 333 333 333 333 340 337 339 342 347 346
320 320 320 319 320 319 321 320 322 325 325 327 327 329 328 328 330 333 336 339 338 339 339 339 340 343 343 329 328 331 336 338 336 332 332 332 338 334 336 340 336 338 339
321 320 319 319 318 318 319 322 321 325 326 324 324 327 328 327 327 330 331 333 333 333 335 336 336 337 342 330 325 328 335 335 332 335 331 331 332 335 339 343 340 340 339
321 321 320 319 318 318 320 320 319 323 323 322 324 326 327 325 328 327 328 332 331 332 334 336 334 333 334 320 322 326 335 335 337 339 343 341 340 336 331 341 338 338 339
323 321 320 319 318 318 319 319 321 322 321 323 324 327 327 327 328 329 328 330 333 333 334 335 334 328 333 318 318 324 335 334 334 336 337 327 336 324 321 337 339 337 336
323 322 320 317 317 317 315 316 320 314 322 324 326 327 327 328 328 325 324 323 329 331 332 331 331 328 327 325 316 315 332 332 332 334 335 333 321 318 317 319 334 333 334
320 320 318 318 319 317 316 315 317 321 322 324 326 326 326 328 330 326 325 328 330 330 330 328 328 329 325 318 316 314 318 326 332 332 334 327 311 310 313 321 315 318 325
322 319 315 317 319 320 319 314 317 323 322 324 325 326 327 328 328 325 323 326 326 328 327 329 328 328 328 324 312 315 316 318 330 328 321 312 308 309 316 313 314 317 327
319 320 318 318 318 319 322 318 321 322 322 321 323 325 326 324 326 325 322 320 322 323 326 326 325 319 316 318 322 329 328 323 323 321 325 321 320 320 322 319 318 327 327
321 320 319 318 318 323 322 322 322 322 320 322 323 323 323 325 321 314 310 316 309 307 320 318 318 317 314 311 302 306 313 316 308 317 323 324 324 324 324 326 326 325 327
321 319 318 317 318 321 321 322 320 319 320 321 322 321 319 317 325 322 317 305 304 301 299 303 312 309 303 300 301 299 299 299 301 319 320 321 323 323 323 323 326 328 328

GFSMW_sfc_thetae_126.txt.gz
Theta_e
340 344 343 342 346 347 351 351 350 348 349 350 348 347 346 346 346 348 353 353 352 351 349 350 349 348 347 347 345 343 339 341 342 337 335 335 337 336 337 338 340 344 349
333 340 347 347 347 346 349 349 352 352 351 351 351 350 349 346 346 346 350 354 352 350 351 348 347 346 346 345 346 343 339 339 341 336 332 327 331 335 338 337 338 337 341
330 332 335 337 345 348 347 350 349 354 354 353 351 347 347 347 343 344 344 352 353 351 351 349 348 347 347 345 345 344 340 335 337 337 330 324 323 326 333 336 339 339 337
329 328 329 330 335 341 350 351 351 352 354 353 350 349 346 344 346 346 347 351 355 353 351 349 348 346 348 346 345 346 344 338 333 334 338 331 330 326 323 332 336 337 337
327 327 329 330 335 349 354 353 352 350 351 349 347 344 343 347 348 344 343 343 351 352 352 350 349 346 346 346 343 345 342 343 337 335 335 334 331 332 328 323 329 338 339
327 328 330 331 332 344 351 353 351 350 350 347 347 346 344 343 341 342 342 344 346 351 351 351 349 348 345 346 346 346 345 343 342 339 339 335 332 333 331 327 328 332 336
324 325 328 328 329 331 335 341 346 346 349 348 346 347 346 345 343 344 344 343 344 345 349 351 350 348 346 345 347 347 346 344 342 339 340 341 339 337 337 332 329 330 334
323 324 326 325 328 329 330 331 330 332 335 344 346 346 346 346 346 346 346 345 345 346 349 350 351 350 349 346 347 346 346 347 344 341 340 340 341 340 341 336 333 328 330
320 322 323 323 325 327 327 328 327 328 330 333 336 340 346 346 346 346 347 347 347 347 348 348 350 351 351 350 347 347 347 347 347 345 343 343 343 343 343 343 340 336 329
318 321 322 324 326 326 326 327 326 326 329 331 332 335 338 342 347 348 345 346 347 347 348 346 347 349 349 350 349 348 348 348 349 349 347 346 347 345 346 345 343 340 337
317 319 323 325 325 325 325 324 324 324 325 329 330 332 334 336 337 340 346 348 348 347 348 347 346 345 347 348 348 344 345 345 346 348 348 346 348 346 345 345 342 341 340
318 321 323 322 322 322 322 322 322 323 324 328 328 330 331 334 334 334 337 345 347 344 347 345 346 345 341 337 340 342 341 337 339 342 346 346 347 345 346 345 343 343 342
320 321 320 320 319 320 320 321 321 322 324 325 326 326 327 330 332 334 335 340 342 343 344 345 345 338 335 336 332 332 334 334 333 332 337 344 344 344 346 345 343 343 342
320 319 317 317 318 319 318 319 320 322 323 324 325 326 327 329 331 333 335 337 339 340 340 343 342 338 335 335 332 333 333 333 332 333 333 338 344 345 346 345 344 343 341
318 318 316 315 316 316 317 319 319 321 322 323 325 325 328 331 329 330 331 335 337 340 341 340 341 340 337 337 331 331 329 331 329 332 333 335 344 344 345 347 345 343 341
318 319 318 317 317 316 317 319 319 319 321 323 323 325 326 327 328 327 328 331 332 337 340 339 340 340 339 331 331 332 328 329 330 331 332 338 339 338 337 337 339 344 342
318 317 317 317 316 315 317 316 317 318 320 323 324 324 325 325 325 326 327 327 330 338 338 338 338 340 339 327 324 328 329 329 330 331 333 334 337 332 335 333 333 334 335
318 318 317 317 315 315 316 318 318 317 320 322 321 324 325 325 325 326 327 326 329 330 333 334 333 338 340 326 323 326 332 333 333 334 333 333 333 333 333 332 335 338 340
318 318 317 316 315 315 316 316 316 316 319 321 322 324 325 324 325 322 327 325 328 327 328 331 332 331 334 323 322 324 333 334 334 333 333 332 330 326 324 333 334 336 340
320 319 318 316 315 314 313 313 314 314 311 318 322 325 326 325 325 326 323 324 326 329 331 332 332 327 332 316 315 323 333 332 333 334 336 329 332 324 321 333 336 334 338
321 320 317 316 315 314 312 311 312 312 314 320 323 324 326 325 326 326 326 328 331 330 329 329 329 328 326 322 314 315 333 332 333 334 334 336 318 315 313 315 337 336 337
320 319 316 316 316 315 312 311 311 313 319 321 323 324 325 326 327 324 324 328 328 329 328 328 327 327 324 317 318 314 316 321 329 328 333 323 312 309 313 319 313 316 326
318 317 315 314 317 317 315 313 314 314 321 320 322 322 324 325 325 323 323 325 326 326 325 325 324 323 326 325 313 312 315 317 327 329 322 311 307 308 312 310 313 319 330
317 314 313 315 314 315 317 318 318 318 319 320 322 322 321 323 320 319 318 315 318 322 324 320 316 315 314 316 324 327 327 321 325 324 323 320 319 316 318 319 320 327 328
318 317 315 315 314 317 316 318 319 319 316 320 321 321 319 321 316 312 310 311 308 306 317 316 314 311 311 307 300 305 315 318 315 322 324 325 326 325 326 325 325 326 327
318 316 315 315 314 314 321 319 319 316 315 318 320 318 315 314 320 318 318 306 304 300 298 300 308 307 301 298 297 297 296 297 302 316 320 322 324 324 324 323 324 325 324

GFSMW_sfc_thetae_129.txt.gz
Theta_e
337 340 343 340 346 346 344 344 344 345 346 346 346 346 345 348 348 348 349 351 352 351 349 350 349 346 345 345 344 343 342 342 339 336 335 335 337 336 335 338 340 342 347
336 337 337 343 339 342 345 346 345 346 346 347 348 348 348 348 349 349 349 351 352 351 350 349 348 347 345 344 343 341 337 337 338 333 329 327 330 332 336 335 335 336 340
334 338 342 342 345 342 344 348 348 348 348 348 349 348 345 347 342 342 346 349 353 351 349 349 347 347 346 344 344 343 340 338 337 337 332 322 323 325 331 334 335 336 335
333 335 337 337 340 344 345 346 348 348 350 347 348 346 345 343 345 343 346 347 351 352 350 350 348 347 347 345 344 346 344 338 336 334 338 330 328 325 323 329 334 335 336
329 329 329 330 337 348 349 348 348 349 350 347 345 345 341 344 346 343 345 343 348 352 351 350 348 347 346 346 344 343 343 342 340 334 332 333 330 329 326 323 326 333 337
326 326 328 330 337 348 349 349 345 345 347 347 346 345 342 342 340 342 342 344 344 349 351 351 349 347 346 345 345 345 344 343 342 340 334 333 330 331 327 325 326 327 332
324 325 326 327 329 330 330 332 332 329 335 340 343 343 343 343 341 342 342 342 343 342 347 348 349 348 347 345 345 344 344 343 341 340 338 339 336 333 332 330 330 328 331
322 324 326 325 327 328 327 327 325 324 327 330 331 335 339 342 344 344 344 344 344 344 346 347 349 349 349 348 345 344 344 344 343 342 340 341 340 337 336 335 332 328 328
321 321 322 324 325 325 325 325 323 323 326 328 329 329 331 335 339 343 345 345 345 346 346 345 347 348 348 348 346 343 343 344 344 343 342 341 341 340 339 339 337 334 328
319 321 323 324 324 324 323 324 323 322 323 324 326 329 330 330 331 334 337 343 346 346 346 346 345 346 347 347 347 345 343 343 343 344 342 341 342 340 341 340 340 339 336
317 320 322 323 323 323 322 320 320 320 321 323 325 325 327 329 329 331 333 334 337 344 345 346 344 344 344 344 344 345 345 344 344 344 343 341 342 343 343 342 341 340 337
318 320 321 320 319 319 319 319 319 320 321 322 323 324 326 326 327 329 331 333 333 337 343 345 344 344 341 336 337 341 329 329 329 330 336 341 344 342 343 343 341 341 341
320 320 318 317 317 317 317 318 318 319 320 321 321 323 326 326 327 328 330 331 333 334 338 343 341 338 336 333 335 333 329 330 330 332 331 333 337 341 341 342 341 342 342
319 317 315 315 316 317 317 317 318 319 319 320 321 322 323 324 326 328 328 330 330 332 335 337 340 339 336 335 334 333 329 331 334 334 335 334 333 337 342 342 343 344 341
317 316 315 315 315 315 315 316 317 317 318 319 320 321 323 324 325 326 327 327 327 329 332 335 337 338 337 337 332 332 329 328 330 333 333 337 336 335 341 344 343 344 341
317 317 317 316 315 316 315 316 316 316 317 317 320 322 322 323 323 324 325 326 326 326 328 330 335 336 338 332 329 332 331 330 328 327 331 332 333 332 333 335 337 342 341
317 317 317 316 316 315 315 314 316 316 315 317 320 321 321 322 323 325 326 325 326 326 326 329 337 336 339 327 327 329 332 330 328 327 328 330 332 335 339 333 332 332 333
317 317 316 316 315 314 314 315 316 315 313 315 318 320 321 322 323 325 325 326 325 326 327 331 337 337 340 326 322 327 333 330 328 328 330 331 333 334 334 332 332 336 339
318 317 317 315 314 314 314 313 312 311 312 310 313 318 322 322 324 324 324 325 326 325 330 330 331 333 337 323 320 322 331 331 330 331 332 332 331 328 323 331 329 328 332
318 318 317 315 314 313 312 310 310 309 310 311 315 319 322 323 324 325 324 324 327 326 328 330 330 326 329 316 315 320 332 330 331 333 332 326 330 321 319 327 328 327 329
319 319 316 314 314 314 311 309 308 308 310 313 321 322 323 323 325 325 324 326 324 328 328 328 328 327 324 318 311 315 332 332 331 331 331 333 319 316 315 316 332 330 331
319 318 315 314 315 314 311 310 310 312 312 318 321 321 322 323 325 323 323 324 324 324 325 324 325 324 324 317 314 313 317 323 330 329 332 325 312 310 310 312 316 316 321
319 318 315 314 313 314 314 312 314 315 315 316 319 319 321 322 321 318 317 318 321 322 321 319 318 320 321 324 310 310 312 317 327 328 316 309 305 307 312 311 313 318 332
318 316 313 312 313 314 315 314 315 316 315 318 318 318 318 319 319 315 315 314 312 317 317 315 313 314 313 312 317 325 326 323 326 323 323 320 318 316 317 322 324 327 329
316 313 312 312 314 312 314 316 317 314 312 316 318 317 318 316 317 315 312 311 309 305 312 313 311 311 312 307 299 301 319 323 319 324 326 326 326 325 326 325 327 328 328
315 314 314 314 313 312 313 317 317 314 314 315 317 316 314 312 318 317 317 307 303 299 296 296 303 306 298 296 296 295 295 297 303 319 319 323 322 322 323 324 325 324 321